GEFSCGP_500_meanwind_042.txt.gz
Wind_Speed
28 29 28 26 25 24 24 23 20 19 17 22 30 32 30 28 30 33 34 32 31 32 33 36 36 33 31 31 31 30 31 32 33 35 37 38 39 40 39 37 34 33 32 33
28 27 24 25 26 25 26 28 27 26 23 26 31 33 33 34 33 33 35 37 36 35 36 40 38 36 34 34 33 32 33 34 36 38 39 40 42 43 43 40 38 37 37 37
24 20 21 24 26 26 27 28 29 29 29 32 34 37 38 39 36 35 37 39 40 40 40 40 41 40 38 37 35 34 35 37 39 40 42 43 45 45 44 43 41 40 40 39
21 20 21 22 23 25 27 26 28 30 31 33 32 36 35 34 31 30 33 36 38 37 38 38 40 40 39 37 36 35 37 38 40 42 44 46 47 47 46 45 43 43 43 42
19 19 22 22 21 23 23 23 24 25 29 32 33 35 35 29 29 29 30 34 36 35 35 36 36 37 37 36 35 36 37 39 41 43 44 46 47 47 46 46 45 45 44 44
21 19 20 20 20 21 21 21 23 24 25 29 27 28 31 27 26 26 27 32 34 33 34 33 33 34 34 34 35 37 38 39 41 43 44 45 46 46 46 46 46 46 46 45
23 22 22 21 20 20 20 20 20 20 21 22 18 21 22 18 20 23 26 31 33 33 34 35 34 32 32 34 35 36 38 39 40 42 43 44 45 45 45 45 45 46 46 45
24 24 23 23 22 20 21 20 20 18 17 17 15 16 16 18 20 24 29 33 33 34 36 35 34 31 31 33 35 36 37 38 39 41 42 43 44 44 44 44 45 45 46 47
24 21 20 24 24 23 21 22 19 20 20 23 22 20 18 20 23 25 28 29 28 29 29 30 32 31 32 34 35 36 37 38 39 41 42 43 43 43 44 46 46 46 48 49
29 26 21 19 24 26 23 21 21 23 24 25 23 20 19 21 22 24 24 24 25 28 28 28 31 31 33 33 35 37 37 38 39 41 42 42 43 44 45 46 47 48 49 51
33 33 28 21 23 25 24 22 23 25 24 23 22 18 18 21 24 24 23 25 29 32 33 33 32 32 33 34 36 37 38 39 40 41 42 43 45 46 47 48 49 50 52 54
35 36 35 31 25 24 25 23 22 26 27 27 27 25 23 27 26 26 28 33 39 40 39 36 34 33 33 35 37 38 39 41 42 43 44 46 47 48 50 51 52 53 55 56
40 39 38 35 31 27 26 26 27 27 28 28 27 25 24 29 31 32 35 38 39 40 37 35 35 35 36 37 39 40 42 43 45 46 47 49 50 51 53 53 54 56 57 57
38 40 39 34 26 26 31 31 30 29 29 30 29 28 29 33 34 34 36 38 37 36 33 35 38 40 41 42 42 44 45 46 48 49 50 51 52 53 55 56 56 57 59 61
39 41 41 40 37 33 29 29 29 30 31 32 32 30 33 38 40 41 43 43 44 45 46 46 46 46 46 46 46 46 47 49 50 51 52 52 53 55 55 57 58 60 62 64
39 40 41 41 40 40 40 37 35 33 31 33 35 35 43 47 48 48 48 48 49 50 52 52 51 50 49 48 48 48 48 49 50 51 52 52 53 55 57 58 59 61 61 61
37 38 39 40 39 39 42 41 40 41 40 41 42 45 49 49 48 48 48 48 49 50 51 52 51 50 48 48 47 48 48 49 49 50 51 52 53 55 57 58 59 60 60 58
35 36 36 37 37 39 36 36 39 42 45 45 46 48 48 46 45 45 47 48 49 49 50 50 50 49 48 48 47 47 47 47 48 49 50 51 53 55 57 58 58 57 55 52
34 34 34 34 34 32 30 35 38 40 43 43 44 44 44 44 45 45 46 46 47 47 47 48 48 47 47 46 45 44 44 45 45 47 49 50 53 55 55 55 54 52 50 48
30 31 31 31 31 29 33 36 37 36 39 39 39 39 39 40 42 43 43 44 44 44 44 44 44 44 43 42 41 42 41 42 44 46 49 51 53 53 52 51 49 48 46 45
24 25 27 28 30 31 34 36 36 37 40 38 37 37 37 38 39 40 40 41 41 40 40 40 39 39 38 37 38 38 39 41 43 47 48 49 49 48 47 46 44 43 43 43
24 24 24 26 28 33 34 34 34 35 36 36 35 35 35 36 36 36 36 36 36 35 35 34 33 32 32 33 34 35 37 40 42 43 43 44 43 42 42 42 42 42 41 40
24 25 25 25 27 29 30 30 31 32 33 33 33 33 33 33 33 32 32 31 30 29 29 28 27 28 29 30 32 34 36 37 37 37 37 37 37 38 39 39 39 38 37 35
23 22 24 26 28 28 27 28 28 29 29 29 29 29 29 29 28 27 26 25 25 24 24 24 24 25 26 28 30 30 30 30 31 32 33 34 35 36 36 36 35 34 32 30
21 20 21 24 26 26 26 26 25 25 25 24 24 23 22 21 21 21 20 19 19 19 19 19 20 21 23 23 24 25 27 28 29 31 32 33 34 34 33 32 31 28 26 24
20 20 21 22 23 23 23 22 22 21 20 19 18 17 17 15 14 14 14 13 14 15 16 17 17 18 19 20 22 24 26 28 29 31 32 32 32 31 29 27 25 23 22 20

GEFSCGP_500_meanwind_048.txt.gz
Wind_Speed
32 33 30 27 28 28 30 31 30 28 27 29 27 25 22 23 26 27 28 29 31 32 33 35 36 36 34 33 33 31 32 32 33 34 33 32 31 31 31 31 32 33 34 34
32 30 26 29 31 31 31 32 30 28 28 31 31 29 26 25 26 26 27 30 32 34 36 36 37 37 36 35 34 33 33 34 36 37 36 35 34 34 34 35 35 35 36 36
29 24 28 31 31 30 30 30 29 28 29 32 34 33 28 25 25 27 30 32 34 36 37 37 38 37 36 35 35 36 36 37 39 39 38 37 37 37 37 37 37 37 38 39
28 28 30 31 32 30 28 26 27 28 30 33 34 35 30 27 27 28 30 32 34 35 36 37 36 34 34 35 36 38 39 39 39 40 39 38 37 37 38 38 38 39 40 39
25 27 29 29 28 27 25 23 25 28 30 31 32 35 30 29 32 32 34 35 36 36 36 34 32 32 33 35 37 39 40 40 39 39 39 38 38 38 39 40 40 41 40 41
25 27 29 28 26 24 22 22 24 27 28 28 22 27 25 22 28 33 36 38 38 36 34 31 30 31 33 36 39 40 40 41 40 40 40 40 40 39 39 40 41 42 43 44
24 26 28 29 27 24 22 23 24 25 25 20 16 21 17 18 22 26 29 30 31 31 30 29 30 32 35 38 40 41 42 42 40 40 41 41 41 42 42 43 44 44 45 45
25 25 25 26 25 23 22 23 23 22 20 17 18 16 14 17 19 20 22 22 24 26 27 29 31 34 37 39 41 41 42 41 40 40 41 42 43 45 45 46 46 47 47 47
25 24 23 23 21 20 20 21 19 21 20 19 20 18 16 18 19 19 20 21 22 25 28 31 34 37 40 42 42 40 40 40 39 39 40 42 45 46 48 49 49 50 50 51
24 25 26 26 26 26 23 19 21 22 23 22 21 19 20 23 23 23 24 25 27 30 32 34 38 40 42 42 42 44 43 39 37 39 41 43 46 49 50 51 52 52 53 54
24 27 28 28 27 27 27 26 25 23 23 23 23 22 24 26 27 29 30 31 33 34 36 37 39 41 42 43 43 43 41 40 39 39 42 45 48 50 52 53 54 55 56 57
27 28 30 30 28 26 27 29 28 29 26 24 24 26 29 30 31 31 32 33 35 36 37 39 40 41 43 43 44 44 43 41 41 43 46 48 50 52 54 55 56 57 58 59
31 31 31 31 31 29 28 29 30 31 29 28 27 30 32 33 35 35 36 37 38 39 40 41 41 43 44 45 45 46 47 47 47 48 50 52 53 54 55 57 58 59 59 60
35 35 34 34 36 35 32 30 31 32 32 33 33 34 35 36 37 38 39 40 42 42 42 41 42 43 45 47 49 51 53 53 53 53 54 54 54 54 55 57 57 57 58 58
38 38 38 37 37 38 37 35 34 34 35 37 37 38 39 40 41 41 42 43 44 44 43 43 44 47 51 54 55 57 57 56 56 55 54 54 54 54 54 55 55 55 56 56
40 39 39 39 39 40 41 41 41 40 40 40 42 44 45 46 46 45 45 46 46 46 46 48 52 54 56 56 57 57 57 57 56 55 55 54 53 52 52 53 53 54 53 53
41 41 40 39 39 40 43 44 45 46 45 46 46 47 48 48 48 47 46 47 48 50 52 55 56 56 56 57 56 56 56 55 55 54 53 51 50 49 50 50 51 51 51 52
38 39 38 38 37 36 39 43 45 47 49 50 51 51 50 49 48 48 49 50 52 53 54 54 54 55 54 54 54 54 53 53 52 50 48 47 46 46 47 47 48 49 51 52
33 34 34 33 33 31 31 34 38 41 44 46 49 51 51 51 51 50 50 51 51 51 52 52 52 52 52 51 51 50 49 48 46 44 43 42 43 44 45 47 48 49 50 50
29 30 31 31 30 30 30 30 32 34 37 39 41 43 45 45 46 46 46 47 47 48 49 49 49 49 48 47 45 44 43 41 40 39 39 40 41 42 44 45 46 47 47 46
24 26 26 26 27 27 28 28 28 31 34 35 37 39 40 41 42 43 44 44 45 45 45 45 44 43 42 41 40 39 37 37 37 37 37 39 40 42 43 43 43 42 42 42
18 20 21 21 21 22 23 24 27 29 30 32 34 35 37 38 39 40 41 42 42 41 41 40 39 38 37 36 35 34 34 34 34 35 36 37 38 39 39 40 40 40 40 39
17 16 16 18 19 20 21 21 22 24 26 28 31 32 33 35 36 36 36 36 36 35 35 34 33 32 32 31 30 31 31 32 32 33 34 35 36 38 38 38 38 37 36 35
17 17 17 17 18 19 20 21 21 22 23 24 26 28 29 30 30 31 31 30 29 28 28 27 27 26 26 26 27 27 28 29 31 33 34 35 36 37 37 36 35 33 31 29
17 18 19 18 18 19 20 21 21 21 22 23 24 25 25 25 25 25 24 23 23 22 22 22 22 23 23 24 25 26 27 29 31 32 33 34 34 34 33 31 30 28 26 23
16 17 18 18 18 18 18 19 19 20 20 21 21 20 21 20 20 19 19 18 18 18 18 19 20 20 21 22 24 26 28 30 31 32 32 32 31 30 29 27 24 22 20 19

GEFSCGP_500_meanwind_054.txt.gz
Wind_Speed
36 35 34 32 32 32 34 35 35 35 39 40 40 38 34 35 36 35 34 32 30 29 26 25 24 22 22 21 22 24 26 27 29 31 32 33 34 33 32 32 29 29 28 29
36 35 33 33 34 34 35 35 35 34 38 42 43 42 39 37 37 37 36 34 32 30 28 27 26 24 23 23 23 25 27 29 31 33 34 37 35 33 33 32 30 28 28 29
35 33 33 34 35 35 35 35 33 33 37 41 43 43 41 38 37 37 36 34 32 30 29 28 28 26 25 25 25 27 28 31 33 35 37 39 38 36 34 30 28 28 28 28
35 34 34 34 35 35 34 32 32 34 36 38 41 42 39 38 37 36 36 35 33 31 30 30 29 28 27 27 28 30 32 34 36 38 39 40 39 38 34 30 27 25 27 28
33 32 33 34 33 34 31 32 33 35 36 38 39 40 38 36 36 35 36 35 35 33 32 31 31 30 30 30 32 33 35 37 40 41 42 41 38 38 35 30 27 26 28 29
33 33 34 34 33 33 32 34 35 35 36 37 36 38 38 36 35 35 36 37 36 35 34 33 32 32 33 34 35 37 38 40 41 43 42 42 40 37 35 32 31 31 32 33
31 32 32 33 33 33 33 33 34 34 35 35 32 35 37 36 35 35 36 36 36 35 35 35 34 34 35 35 36 37 38 40 41 43 42 42 39 38 36 36 34 35 35 37
28 29 29 30 30 31 31 32 33 33 32 31 30 32 33 33 33 33 33 33 33 33 32 32 32 31 32 33 34 36 38 39 41 42 41 41 41 39 39 39 40 40 41 42
24 24 25 25 26 28 30 31 30 31 30 29 29 30 31 31 30 31 31 31 31 30 30 30 30 30 30 31 33 35 37 38 40 41 41 42 42 43 43 44 46 46 47 48
22 22 22 24 27 29 31 31 31 31 30 28 28 27 28 29 29 30 31 30 30 30 30 30 30 31 32 33 35 36 37 39 41 42 44 45 46 47 48 49 50 50 51 52
21 22 22 25 28 31 33 33 33 32 30 29 28 27 27 28 29 31 31 31 31 31 31 32 32 33 34 36 37 39 40 41 43 45 46 48 49 50 50 51 52 53 54 55
22 23 23 26 28 31 33 35 34 32 31 29 28 28 27 27 28 30 32 33 34 34 35 35 35 36 37 38 39 41 43 44 46 47 49 51 52 52 54 55 56 58 58 58
24 25 25 26 29 31 33 34 35 34 33 32 30 31 29 30 31 31 33 34 35 36 36 37 38 39 40 41 43 45 46 47 49 50 52 54 55 56 58 59 59 60 59 59
27 27 27 27 29 30 32 33 34 35 35 35 35 35 35 34 35 35 36 36 37 38 39 41 41 42 43 45 47 48 49 51 53 55 56 57 58 58 60 60 60 59 59 59
29 30 30 30 30 31 32 33 34 35 37 38 39 39 40 40 40 40 40 40 40 41 42 42 44 45 47 48 49 51 52 54 55 56 57 58 59 59 59 59 59 58 58 57
30 31 32 33 33 34 35 35 35 36 37 39 40 40 40 41 41 42 43 43 43 43 44 45 45 47 49 51 52 53 54 55 56 57 57 58 57 57 57 57 57 56 55 54
29 32 33 35 36 37 37 37 37 38 38 39 40 40 41 41 41 40 41 41 41 42 43 45 46 48 49 51 54 55 55 55 55 55 55 55 55 55 54 54 53 52 51 50
28 30 32 34 35 37 37 37 38 38 38 38 38 38 38 38 37 38 39 40 42 44 45 46 47 49 51 52 52 53 53 53 53 53 52 52 51 51 51 50 49 48 48 48
25 27 29 31 33 34 34 34 34 34 35 36 37 37 38 38 38 38 39 39 40 42 43 45 47 48 50 50 51 51 51 50 50 49 49 48 47 47 47 46 46 46 46 47
23 24 26 27 28 29 29 29 29 31 32 32 34 35 35 34 35 35 36 38 39 41 43 44 45 46 47 48 48 48 47 46 46 45 44 44 44 43 43 44 44 44 45 46
20 21 22 23 24 24 24 24 25 26 27 28 30 31 32 33 34 34 35 37 38 40 41 42 43 43 44 44 44 43 42 42 41 40 40 40 41 41 41 42 43 44 45 45
18 18 18 19 20 20 21 22 22 23 23 24 26 28 29 31 32 33 34 35 36 37 38 38 39 40 39 39 38 37 37 36 36 36 37 37 38 39 40 41 42 43 43 42
16 16 16 16 16 16 17 18 19 20 21 22 24 25 26 28 29 30 31 32 33 33 34 34 34 34 34 33 33 33 33 33 34 34 35 37 38 39 40 40 41 40 39 38
14 14 14 14 15 15 16 16 17 18 19 20 21 22 23 24 25 26 27 28 28 29 29 29 29 28 28 29 29 30 30 31 33 34 35 37 38 39 39 39 38 36 34 32
14 13 13 13 14 15 16 16 16 17 18 19 19 20 21 22 23 24 24 25 24 24 24 24 24 24 25 25 26 27 29 31 33 35 36 37 37 37 35 34 32 29 27 24
13 12 12 13 13 14 15 15 16 17 17 18 18 19 19 20 20 20 20 20 19 19 19 20 20 21 22 23 25 27 30 32 34 35 35 34 33 31 29 27 25 22 20 18

GEFSCGP_500_meanwind_060.txt.gz
Wind_Speed
31 30 30 29 29 30 30 30 31 33 33 33 32 32 31 31 29 28 27 27 26 24 24 25 25 26 27 26 26 26 25 25 25 26 28 29 31 33 34 35 36 36 36 35
31 31 30 31 31 31 31 31 32 33 35 37 37 36 35 35 34 33 32 32 30 29 28 28 28 28 28 28 28 28 28 28 28 29 30 31 33 34 37 39 39 38 36 32
32 32 32 31 32 32 32 31 32 35 37 37 38 38 39 39 38 37 36 36 35 34 32 31 31 31 30 29 29 30 30 31 31 32 32 34 35 36 38 38 39 37 34 33
32 33 33 32 32 32 32 32 33 34 36 37 39 38 39 41 41 41 40 39 38 37 35 34 33 32 31 31 31 32 32 33 34 34 34 35 37 38 39 40 38 36 33 32
31 32 32 32 31 32 32 32 33 34 35 37 38 38 35 40 40 41 41 40 39 38 36 35 34 33 32 32 32 33 34 35 35 36 37 38 39 39 39 39 38 36 34 33
30 31 31 31 31 31 31 32 33 34 34 36 36 36 33 39 39 39 39 39 38 37 35 34 34 33 33 33 34 35 36 37 37 38 38 39 39 39 40 40 39 38 37 35
28 29 29 30 30 30 30 30 30 30 32 32 33 34 34 39 36 36 36 35 34 34 33 33 33 33 33 33 34 34 36 37 37 38 39 39 39 40 41 40 40 39 38 37
21 21 24 26 26 28 28 28 27 24 23 23 30 30 35 36 33 32 32 31 30 30 30 30 29 29 30 31 32 33 35 36 37 38 39 39 40 41 41 41 41 41 41 41
16 17 21 23 24 26 27 27 26 26 25 23 22 29 34 32 31 30 29 28 27 27 26 26 26 26 27 29 31 33 34 36 37 38 39 40 41 42 42 42 44 44 44 44
14 14 16 19 22 24 25 25 27 28 26 23 22 25 27 29 29 28 27 26 25 25 25 25 26 27 27 29 31 32 34 36 37 39 40 41 43 43 43 44 45 46 46 47
13 14 14 16 18 19 22 25 26 26 25 23 21 22 27 26 26 25 24 24 24 24 25 25 27 28 29 30 32 34 35 37 38 40 42 43 44 44 45 47 48 48 49 50
13 14 15 16 18 20 21 23 24 25 26 27 23 25 28 26 25 24 24 24 24 24 25 27 29 30 31 33 34 36 37 39 40 42 44 45 46 47 49 50 51 52 53 53
14 15 15 16 19 21 23 24 25 26 25 25 24 28 29 27 27 26 26 26 27 27 29 30 31 32 34 35 36 38 39 41 43 44 45 47 48 50 51 53 54 55 55 55
16 17 17 17 19 22 23 25 26 26 24 24 26 30 31 30 30 30 30 30 30 31 32 34 35 36 37 39 40 41 42 44 45 46 47 49 50 52 53 54 55 56 56 56
17 18 19 20 21 23 24 25 26 28 28 28 29 31 32 33 33 33 34 34 34 35 35 37 38 39 41 42 43 44 45 46 47 48 49 51 52 53 54 54 55 55 55 55
18 19 19 21 21 22 23 25 26 28 30 31 32 33 34 34 35 36 36 36 37 37 37 38 39 40 42 42 43 44 44 45 47 49 50 51 51 52 53 53 54 54 54 54
17 18 20 21 22 22 23 25 27 29 30 31 33 35 35 36 36 36 37 37 38 39 39 40 40 41 41 42 42 44 45 47 48 49 49 49 50 51 52 52 52 53 52 52
17 18 19 20 22 22 24 25 26 28 29 31 32 33 34 34 35 36 36 35 36 36 37 38 39 40 40 41 42 44 45 46 47 47 48 48 49 49 50 50 50 49 49 49
16 17 18 18 20 22 24 23 24 25 27 29 30 30 31 32 33 34 34 34 35 36 37 37 38 39 39 41 42 43 44 45 46 46 46 46 46 47 47 47 46 46 46 47
14 15 16 17 18 21 22 20 20 21 24 24 25 26 27 28 30 31 31 32 33 33 35 36 37 37 39 40 41 42 43 43 43 43 44 44 44 44 44 44 44 44 45 45
13 13 13 15 17 19 19 17 18 20 22 22 22 23 25 26 28 29 29 30 31 32 33 34 35 36 37 38 39 40 40 40 41 41 41 41 42 42 42 42 43 43 44 44
12 12 12 13 15 16 16 16 17 19 20 20 21 22 23 24 25 26 27 28 29 30 31 32 34 35 35 36 36 37 38 38 38 38 38 39 39 40 41 41 42 42 43 43
11 11 12 13 14 15 15 15 17 17 18 19 19 21 22 23 24 24 25 26 27 28 30 31 32 32 32 33 33 34 34 35 35 35 36 37 39 39 40 40 40 40 39 38
11 11 11 12 13 14 14 14 15 15 16 17 18 19 20 21 22 23 24 24 25 26 27 28 28 29 29 30 31 31 31 32 33 35 36 37 38 38 38 37 36 34 33 30
11 10 10 11 12 13 13 14 15 16 16 17 18 19 19 20 20 20 20 21 22 23 24 25 25 26 26 27 28 29 30 32 33 35 35 36 35 34 31 30 28 27 25 23
10 9 9 10 11 12 13 14 14 14 15 16 16 17 17 18 18 18 19 20 20 20 21 21 22 22 23 25 27 29 31 31 31 32 31 30 28 26 24 23 21 20 18 16

GEFSCGP_500_meanwind_066.txt.gz
Wind_Speed
30 30 29 26 25 23 20 18 18 16 19 23 22 19 19 19 22 24 22 21 21 21 22 23 26 27 24 22 22 23 24 25 26 27 28 29 29 30 30 31 32 32 32 32
30 29 28 27 25 25 26 24 22 21 24 27 26 23 23 24 26 25 25 25 24 26 27 28 28 26 26 27 27 26 27 28 28 29 30 31 32 33 33 34 34 35 35 34
27 25 27 28 26 27 28 27 24 22 24 28 28 26 24 26 28 29 29 28 29 30 30 30 30 30 32 31 29 28 30 32 31 31 33 34 34 35 35 36 36 38 38 36
25 25 25 28 28 28 28 27 26 25 26 27 27 26 25 26 28 30 31 31 33 34 34 34 34 35 35 34 34 32 33 33 33 34 35 36 36 37 38 38 38 39 39 38
23 24 24 25 26 27 27 25 26 28 29 29 28 27 24 23 27 30 32 33 34 34 34 35 36 36 36 36 37 35 35 35 35 36 36 38 39 40 41 41 41 42 41 40
20 22 24 24 25 26 25 25 25 27 28 30 27 26 23 22 28 32 34 34 33 33 34 35 36 36 37 37 36 36 37 37 37 38 38 39 40 42 43 43 43 43 43 42
17 19 21 23 23 24 24 24 24 24 25 25 21 23 26 27 33 35 36 36 35 35 34 34 35 36 36 36 36 37 37 38 38 39 40 41 41 43 43 44 44 44 43 43
12 15 18 21 22 21 23 24 23 20 18 18 17 21 27 32 35 37 37 38 38 38 37 35 35 35 34 34 35 36 37 37 38 39 40 41 42 43 44 44 45 45 45 44
11 14 16 18 19 20 20 22 21 22 21 19 17 22 29 32 33 35 37 39 40 40 38 36 34 33 32 32 32 33 34 36 37 38 39 41 42 43 44 44 45 45 46 47
13 13 14 15 17 20 21 19 20 23 24 21 17 21 28 30 32 33 34 36 37 36 35 34 32 31 31 31 32 33 34 35 36 38 39 40 42 43 44 45 46 47 49 50
14 13 12 13 14 15 19 21 22 24 24 23 21 24 26 29 32 33 33 30 30 31 31 31 30 30 30 30 31 33 34 35 36 37 39 41 43 44 46 48 49 51 52 52
14 15 14 14 15 16 19 20 22 25 25 25 25 28 30 30 31 30 28 27 26 28 29 29 30 31 31 32 32 34 35 36 38 40 41 43 45 46 48 50 52 53 54 54
14 15 14 13 14 18 20 21 22 24 25 25 24 29 31 31 33 33 31 28 27 27 27 28 30 31 32 33 34 36 37 38 40 42 44 45 47 48 50 52 53 54 55 56
14 14 15 16 17 18 20 22 23 24 24 25 27 31 32 32 32 32 32 30 28 27 28 29 31 33 34 36 37 38 40 41 42 44 45 47 48 49 51 52 53 54 55 56
12 14 16 17 16 16 17 18 20 22 23 25 28 32 34 36 34 33 32 30 28 28 29 31 33 34 36 37 38 39 41 42 43 44 45 46 47 49 50 52 53 55 57 58
13 14 15 16 16 17 16 18 19 21 23 25 29 31 32 34 36 33 30 27 27 28 30 32 34 36 38 39 41 42 42 43 44 45 46 48 50 51 53 54 55 56 56 57
13 15 15 15 17 17 17 19 21 22 24 27 29 31 32 32 30 31 30 30 31 32 33 34 35 36 37 39 40 41 41 42 43 45 46 48 49 50 50 52 53 53 54 54
13 15 16 16 17 18 22 23 23 24 25 27 29 31 33 33 34 33 33 33 33 33 33 34 35 36 36 36 37 38 40 40 41 43 45 46 47 48 50 51 51 52 52 53
13 14 15 16 16 18 23 24 25 26 28 28 29 31 32 32 33 34 34 33 33 32 32 33 34 34 34 36 37 37 38 40 42 44 45 45 46 47 47 48 49 49 50 50
14 14 15 16 18 20 22 23 23 24 27 27 28 29 30 31 32 33 32 31 31 31 31 31 32 33 34 36 36 37 38 40 41 42 43 43 44 44 45 46 46 47 47 48
15 15 15 16 18 20 21 23 23 24 25 24 26 27 27 28 28 28 28 28 29 30 30 31 31 32 33 34 35 36 36 38 39 40 40 41 42 43 43 44 45 45 45 45
15 15 15 16 17 19 19 20 22 22 23 23 23 23 24 24 24 25 26 26 27 28 28 29 30 31 31 32 33 34 35 36 37 38 39 40 41 42 42 42 41 41 40 40
15 15 15 16 17 18 17 18 19 20 21 21 21 21 21 22 22 23 24 24 25 26 27 27 27 28 29 30 31 32 33 34 35 37 38 38 39 39 38 37 36 35 34 34
16 15 15 15 16 16 16 16 17 18 19 20 20 20 20 20 21 21 21 23 23 23 23 23 24 26 27 28 29 30 31 32 34 34 35 35 34 34 32 31 31 30 29 29
16 16 15 15 15 15 14 15 15 17 18 18 18 19 19 19 19 20 20 19 19 19 20 21 22 23 24 25 27 28 30 31 31 31 31 30 29 28 27 26 26 26 25 24
15 15 15 14 14 14 14 15 16 16 16 16 16 16 17 17 17 17 16 16 17 18 18 19 20 21 22 24 25 26 27 28 28 28 27 26 24 23 22 22 21 21 20 19

GEFSCGP_500_meanwind_072.txt.gz
Wind_Speed
25 26 27 28 29 27 27 26 24 23 22 22 20 18 19 21 23 25 27 26 26 25 24 24 24 24 23 22 21 20 19 21 22 22 23 24 25 25 25 25 26 26 26 26
24 25 25 27 28 28 27 27 24 23 23 22 20 18 19 22 23 24 26 26 26 25 25 25 25 25 24 24 23 22 22 23 24 26 28 28 29 29 30 30 30 30 31 31
22 24 26 26 27 28 28 27 24 23 23 23 21 20 21 23 24 25 27 27 27 27 27 27 26 25 26 26 25 25 24 26 29 30 31 32 33 33 33 34 34 34 34 34
20 23 25 26 27 28 28 27 25 24 24 24 24 24 24 25 26 27 28 28 28 29 29 29 29 28 28 29 29 29 30 31 33 34 34 35 36 36 36 37 37 36 34 34
18 21 23 24 24 27 27 27 27 27 27 28 27 27 26 28 30 30 30 30 30 30 30 30 31 32 31 32 33 33 34 35 36 36 37 38 40 40 39 39 39 38 38 38
16 19 21 21 22 24 25 27 29 30 30 29 27 28 28 29 31 32 33 32 32 32 31 32 33 34 35 35 35 36 36 37 38 39 39 40 41 42 41 41 41 41 40 40
16 17 19 20 22 23 23 25 27 29 30 30 27 28 29 28 31 34 34 34 34 34 34 34 35 36 36 36 37 37 38 38 39 40 41 41 42 42 42 43 43 41 40 40
14 14 15 18 20 21 22 23 24 26 28 28 28 31 32 29 30 33 34 35 36 36 37 37 37 37 38 39 39 39 39 40 41 42 42 42 41 41 42 42 42 41 41 41
12 13 15 17 19 20 21 22 22 24 26 27 28 31 32 31 31 32 34 35 37 37 37 38 38 39 40 41 42 42 42 42 42 42 42 42 42 42 42 42 43 42 43 44
8 11 14 17 19 20 21 22 22 24 25 26 27 29 31 29 30 31 33 35 35 37 39 38 38 40 42 42 43 43 42 42 42 42 42 42 42 42 42 42 43 44 45 46
8 10 12 15 18 20 21 23 25 26 26 27 28 30 31 30 29 30 31 32 34 36 37 39 40 41 41 42 43 43 43 42 42 42 42 41 42 42 43 44 45 47 48 49
8 9 10 14 17 19 22 23 24 26 27 28 29 33 32 33 31 31 31 31 32 33 35 37 38 40 42 42 42 42 42 41 41 41 41 42 43 43 44 45 47 48 49 51
8 9 11 14 16 18 21 23 25 26 28 30 31 34 34 34 34 33 33 33 34 35 36 37 38 38 39 40 40 40 40 41 41 41 41 42 43 45 46 48 50 51 53 55
10 11 11 13 15 18 20 22 23 25 28 30 31 34 34 35 35 35 35 34 34 34 34 34 34 35 36 37 37 38 39 39 40 41 42 43 45 46 48 50 52 53 54 56
10 11 12 14 16 18 20 22 22 23 25 28 30 32 34 34 34 34 34 34 34 32 32 31 31 31 33 34 35 36 37 39 39 40 41 43 45 47 49 51 52 53 54 55
9 10 11 13 16 18 19 20 21 23 25 26 28 30 31 32 33 32 31 30 30 29 28 28 29 29 31 32 32 34 35 36 38 39 41 43 44 46 47 48 49 50 50 52
8 9 10 12 13 16 16 18 20 22 22 24 25 27 28 30 31 31 30 28 28 28 26 25 25 25 27 29 30 32 34 36 37 38 39 40 41 43 45 46 47 48 49 50
9 9 10 12 13 15 16 16 16 17 19 21 23 24 25 26 27 27 27 27 26 26 25 25 26 27 27 28 29 31 32 33 35 36 38 39 40 42 43 44 46 47 48 49
10 10 10 11 12 14 15 15 15 17 18 19 20 22 24 24 23 23 23 23 23 24 24 25 25 25 26 27 29 30 32 33 35 36 37 39 40 41 42 43 45 46 47 48
11 12 12 12 13 14 14 15 16 18 19 20 20 21 22 21 20 21 20 21 21 22 23 23 24 24 25 26 27 29 31 32 34 35 36 37 38 40 41 42 43 44 44 44
12 12 12 12 13 14 14 15 16 16 18 18 19 19 19 19 19 19 19 19 20 21 21 22 23 23 24 25 26 28 29 30 31 32 34 35 36 37 38 39 39 39 40 40
14 14 14 14 13 13 14 13 14 15 15 16 16 16 17 18 18 18 18 18 19 19 20 21 21 22 23 24 24 25 26 27 28 29 30 31 32 33 34 34 34 34 34 33
14 14 14 14 13 13 12 12 12 13 14 14 14 15 15 15 16 16 16 17 18 18 18 19 20 21 21 22 22 23 24 25 26 27 28 29 30 30 30 30 29 28 28 29
15 15 15 14 14 13 12 12 12 12 13 13 14 14 14 14 14 14 14 15 15 16 17 17 18 18 19 19 20 21 22 24 25 25 25 26 26 26 26 26 25 25 25 24
16 15 15 15 15 13 12 12 12 12 12 13 13 13 13 12 12 12 13 13 14 14 15 15 15 16 17 18 19 20 21 21 21 21 21 22 23 23 23 23 22 22 21 20
16 16 16 15 15 14 13 13 13 12 12 12 13 12 12 11 11 11 12 12 12 12 13 13 14 15 15 16 17 17 18 18 18 19 20 20 20 20 20 20 19 18 17 16

GEFSCGP_500_meanwind_078.txt.gz
Wind_Speed
20 22 24 26 28 30 32 31 30 29 30 30 30 29 32 33 33 32 32 31 29 27 26 24 22 21 21 21 21 20 21 22 22 23 22 23 23 25 26 26 27 27 28 30
20 22 23 24 27 28 30 31 30 29 31 31 31 30 31 33 34 33 33 32 31 30 29 27 25 24 23 24 24 23 24 24 25 26 27 28 28 28 29 30 29 29 30 31
19 21 23 24 25 26 27 28 29 28 31 32 31 31 31 33 33 33 33 33 33 33 31 30 29 27 27 26 26 26 26 27 28 29 30 29 30 31 31 32 32 32 32 33
17 19 21 23 24 25 25 26 28 29 31 32 32 31 31 32 32 32 32 32 32 33 32 31 31 30 29 29 28 28 29 30 31 32 32 32 32 32 33 33 35 36 36 35
16 18 20 22 23 23 23 25 27 29 30 31 31 32 31 31 31 31 31 31 31 32 33 32 31 31 31 31 30 31 31 33 34 35 34 34 35 35 35 36 38 38 37 36
14 16 18 20 22 23 23 26 27 29 30 31 31 32 32 31 31 31 31 31 31 32 33 33 33 33 33 33 32 33 34 36 36 36 35 36 36 37 36 37 37 37 37 38
12 14 16 18 20 22 23 25 26 28 30 30 30 32 32 31 31 31 32 32 33 33 34 35 35 35 35 35 35 36 37 39 39 39 38 38 37 37 37 38 38 39 38 38
11 13 14 16 18 20 21 23 25 28 30 31 31 32 31 31 31 32 32 34 34 35 36 37 38 38 38 38 38 39 40 40 40 41 41 40 39 39 39 40 40 40 40 40
10 11 13 15 17 19 20 22 24 27 29 31 32 33 32 32 32 33 33 34 35 36 37 38 40 41 41 41 42 42 42 42 42 41 41 42 42 42 42 42 42 42 42 42
9 11 12 15 17 19 20 22 23 26 27 30 32 33 34 33 33 33 34 34 35 36 37 38 39 41 41 42 43 44 44 44 45 44 44 44 44 44 45 45 45 44 43 42
8 10 11 13 16 17 19 21 23 25 26 28 31 32 32 33 34 34 35 36 36 37 38 39 39 40 41 42 43 44 44 44 44 44 43 44 44 45 45 46 45 45 44 44
7 9 11 13 14 15 18 19 21 24 26 27 29 30 30 31 32 33 35 36 37 38 38 38 39 40 40 41 41 41 42 43 43 44 43 43 43 43 44 44 44 45 46 47
6 9 10 12 13 14 16 18 20 22 24 25 27 29 29 31 31 33 34 36 36 37 37 38 38 38 38 38 38 38 39 39 41 42 43 43 43 42 43 45 46 46 47 48
7 8 9 11 12 14 16 18 20 21 23 25 26 27 28 30 31 33 34 35 36 36 37 36 36 36 35 34 35 35 36 36 37 38 39 40 41 42 43 43 44 45 47 49
9 9 10 11 12 13 15 16 18 21 22 23 25 26 27 28 30 31 32 33 34 34 34 34 34 34 33 33 33 33 34 35 35 35 36 37 38 39 41 41 43 44 46 47
8 9 10 11 12 13 14 15 17 19 21 23 24 25 26 27 28 29 30 31 32 33 32 32 31 31 31 30 29 29 29 30 31 32 34 35 37 38 39 40 42 43 45 47
8 9 10 11 12 13 13 14 15 17 18 20 22 24 25 25 26 28 28 28 29 29 29 29 29 28 28 27 27 27 27 27 29 30 31 32 34 35 37 39 41 42 44 46
10 11 11 12 12 13 13 14 15 16 18 19 20 21 21 22 24 24 24 24 24 25 26 27 26 25 25 25 25 24 25 26 28 29 30 31 33 35 36 38 39 41 43 45
11 11 12 12 12 12 13 13 14 15 16 17 18 19 20 20 20 21 23 22 21 22 23 23 23 24 24 25 24 25 26 27 28 29 30 31 32 33 35 36 38 40 42 44
12 12 12 13 13 14 14 13 14 14 14 15 16 17 17 16 17 17 17 17 18 20 21 22 22 22 23 23 24 25 25 26 27 28 29 30 31 32 33 34 36 38 39 41
13 13 13 14 14 14 14 14 13 13 13 13 14 14 14 14 15 16 17 18 18 19 19 19 20 20 21 22 23 24 24 25 26 27 27 28 29 30 31 32 33 35 35 36
13 14 14 14 14 15 14 13 13 13 13 13 13 13 13 14 15 15 15 16 16 16 17 17 18 19 20 21 21 21 22 23 23 24 25 26 27 28 29 29 30 29 29 29
14 15 15 15 15 15 14 13 13 13 13 13 13 13 13 13 13 14 14 14 14 14 15 16 17 18 18 19 20 20 20 21 22 22 23 25 25 26 26 26 26 26 25 25
15 16 16 16 16 15 14 14 14 14 13 13 12 12 13 13 13 13 12 12 13 14 14 15 16 16 17 18 18 18 18 19 20 22 23 23 24 24 23 23 23 23 23 23
15 16 16 16 16 16 15 14 14 13 13 12 11 11 12 12 12 12 12 12 12 13 13 14 14 15 16 16 16 17 17 19 20 21 21 22 21 21 21 21 21 21 20 20
16 17 17 16 17 16 16 15 14 13 13 12 12 12 11 11 11 11 11 11 12 13 13 14 14 14 14 15 15 16 17 18 19 19 19 19 19 18 18 18 17 17 17 17

GEFSCGP_500_meanwind_084.txt.gz
Wind_Speed
13 14 16 19 21 24 25 26 27 28 28 27 27 28 27 27 26 25 25 26 26 26 25 25 25 24 24 23 23 22 22 23 23 24 25 25 25 26 27 29 30 31 31 31
12 14 16 18 20 21 22 24 26 28 29 28 28 28 28 28 28 27 26 26 27 28 27 27 27 27 26 26 26 26 26 27 27 28 28 29 30 30 31 32 33 34 34 34
12 15 16 17 19 20 20 22 24 27 28 28 28 29 29 29 29 28 28 28 28 29 29 29 29 29 29 29 29 29 30 30 31 30 31 31 32 32 34 35 34 34 36 36
12 14 16 16 17 19 19 21 23 25 24 24 27 25 30 30 30 30 30 29 29 29 30 30 31 31 31 31 31 31 32 33 33 32 33 34 35 35 35 35 35 35 35 36
11 13 14 15 16 18 19 20 22 23 24 24 25 24 27 30 29 30 30 30 30 30 30 32 32 33 33 33 32 33 33 34 35 35 36 36 37 37 36 37 37 38 39 39
9 10 11 13 14 16 18 18 19 21 21 22 24 23 24 28 29 29 29 30 30 30 30 31 33 34 34 34 34 35 36 36 36 36 37 37 37 38 38 39 39 40 41 41
7 8 9 11 11 13 15 16 15 15 17 19 24 24 26 27 27 27 28 29 29 29 30 31 32 33 34 35 35 36 36 37 37 38 38 39 40 39 40 41 41 41 41 40
4 6 8 9 10 12 14 15 14 14 15 18 22 23 26 26 25 25 26 27 28 29 30 30 31 32 34 35 36 36 37 37 38 39 40 41 42 42 42 42 43 44 42 41
3 5 6 7 9 11 13 14 16 16 16 17 20 24 26 25 25 25 25 26 28 29 31 32 32 33 34 35 36 37 37 38 39 40 42 42 43 44 44 43 44 44 43 43
3 4 6 7 8 11 13 14 15 14 14 15 19 23 25 25 25 26 26 27 28 30 32 33 33 34 35 35 36 37 38 38 39 40 41 42 43 44 45 45 46 45 45 44
3 4 6 7 9 10 12 14 14 15 16 14 15 20 24 25 25 26 27 28 29 31 32 34 34 35 36 36 37 38 39 40 40 40 41 42 43 44 45 46 46 45 45 45
3 4 6 7 8 10 12 14 15 15 17 17 16 21 22 23 24 26 27 28 29 31 33 34 35 36 36 36 37 38 38 39 40 40 41 41 43 43 44 45 46 45 45 45
3 3 4 5 7 9 11 13 15 16 18 18 18 23 23 23 24 25 26 28 30 31 32 33 34 35 35 36 36 37 37 38 38 39 40 40 40 41 42 42 42 43 43 44
3 3 3 5 7 8 10 12 13 15 16 19 21 23 23 24 25 26 26 28 29 30 31 32 33 34 34 35 36 36 37 37 38 39 39 39 40 40 40 40 40 40 41 41
4 4 5 7 8 9 10 11 13 14 16 18 20 22 23 24 25 26 26 27 28 29 30 31 31 32 33 34 34 34 35 35 35 36 36 37 38 38 38 38 38 38 38 39
6 5 6 7 8 10 10 12 13 15 16 18 20 21 22 23 24 24 25 26 26 27 28 28 29 30 31 32 32 32 33 33 33 33 33 34 34 34 34 34 35 36 37 37
7 7 7 8 9 10 11 12 14 15 16 18 19 20 21 22 23 24 25 25 26 26 26 27 27 28 29 29 29 30 30 29 30 30 30 30 30 31 32 33 33 34 35 35
7 8 8 9 10 10 12 12 13 15 16 17 18 19 20 20 21 22 23 23 23 24 24 24 24 25 26 27 27 26 26 26 26 27 27 27 28 30 31 32 32 33 33 34
8 9 9 10 11 11 12 12 12 13 13 13 15 17 18 19 20 20 20 20 21 22 22 22 23 23 23 23 23 23 23 24 24 25 26 26 27 28 29 29 30 30 30 30
9 10 11 11 11 12 12 12 11 11 11 13 14 15 16 17 17 18 17 18 19 20 20 20 20 20 21 20 20 21 22 22 23 24 24 25 25 26 26 26 27 28 28 28
10 11 12 13 12 12 13 12 11 11 13 13 13 13 14 14 15 16 15 15 16 16 17 17 17 18 19 20 20 20 21 21 22 22 22 23 23 24 24 24 25 26 26 26
10 12 13 14 13 13 13 13 12 12 13 13 12 12 13 13 13 13 13 12 13 13 14 15 15 16 17 18 18 18 19 19 20 20 20 21 21 22 22 23 23 23 23 23
11 12 14 14 14 14 14 14 13 13 13 13 12 12 12 12 12 12 11 11 11 12 13 14 14 15 16 17 17 17 18 18 18 18 19 20 20 20 21 21 21 21 21 21
11 13 14 15 15 15 15 14 14 13 13 12 12 12 12 12 12 11 11 11 11 11 12 13 14 15 16 16 16 17 17 16 16 17 17 18 19 19 19 19 19 19 19 18
11 13 15 15 15 15 15 14 14 13 12 12 12 12 12 11 11 10 10 10 10 11 11 12 13 14 15 15 15 14 14 14 15 15 16 16 16 16 16 17 17 17 16 15
12 14 15 16 16 15 15 14 14 13 12 12 12 12 11 11 11 10 10 10 10 10 10 11 11 12 12 13 13 13 13 14 14 14 14 14 14 14 14 14 14 14 13 12

GEFSCGP_500_meanwind_090.txt.gz
Wind_Speed
7 8 8 9 12 13 14 15 15 16 19 20 22 23 24 25 25 25 26 26 25 26 25 27 26 23 20 20 20 20 21 21 21 21 21 22 22 24 25 25 25 24 25 26
6 6 9 11 13 15 17 16 17 20 21 21 21 23 25 26 25 27 26 25 25 25 25 25 23 23 21 21 22 22 22 23 23 23 23 24 25 26 27 27 26 27 28 29
8 8 10 12 14 15 16 15 15 18 20 22 22 23 25 26 27 27 28 28 28 27 26 25 22 22 22 23 23 23 23 24 24 25 26 26 27 28 29 29 30 30 32 32
8 11 11 12 13 14 16 16 17 18 17 17 19 21 24 25 27 27 28 27 26 26 26 25 25 25 25 26 26 25 25 25 26 27 28 28 29 30 31 32 33 34 34 35
8 10 11 11 12 14 15 16 17 17 17 17 18 20 23 26 28 28 28 27 27 28 27 28 27 27 28 28 29 28 28 30 30 30 31 31 31 33 33 34 35 35 36 36
9 10 11 11 11 12 14 14 16 15 15 18 18 20 24 27 29 29 29 27 26 26 26 27 27 27 28 30 31 31 32 33 33 34 34 33 34 35 35 36 36 36 36 36
7 10 11 10 10 11 13 13 11 12 14 16 17 22 27 30 29 29 28 27 26 27 28 26 26 28 29 30 31 32 34 35 36 36 36 36 37 37 37 38 38 37 37 37
7 7 9 9 8 9 10 12 12 13 14 15 18 24 30 31 30 29 27 27 25 27 28 28 29 30 30 31 32 34 34 35 36 37 37 38 38 39 39 39 39 39 39 40
6 5 6 7 7 8 9 13 15 17 16 15 18 26 28 28 30 29 27 28 28 28 29 29 30 31 32 33 33 34 34 36 37 37 38 40 40 41 41 42 41 42 42 42
5 4 4 4 5 7 9 11 13 16 15 15 17 22 26 28 28 28 28 29 29 28 29 30 31 32 33 33 34 34 34 35 36 37 38 39 40 41 41 42 42 43 43 43
6 4 3 5 6 8 9 11 13 15 16 16 17 22 23 23 27 28 26 25 26 27 29 30 32 33 33 34 34 35 36 36 37 37 38 38 39 41 42 42 42 43 43 43
5 4 5 6 7 7 8 11 13 15 16 18 20 24 24 21 23 26 26 27 27 27 28 29 31 32 33 34 34 35 36 36 36 37 37 38 39 39 40 41 41 42 43 43
4 4 5 6 7 8 10 12 14 15 17 17 18 25 26 24 23 24 25 25 26 27 28 29 30 31 32 33 34 34 35 36 37 37 37 38 39 39 40 41 42 42 42 43
5 4 4 4 6 7 9 12 12 14 18 19 21 25 26 26 28 27 25 26 26 27 27 28 29 30 31 32 33 33 34 35 36 37 38 39 39 40 40 41 41 42 42 42
6 5 5 5 5 5 7 9 11 15 18 21 23 25 26 26 27 27 27 26 25 25 26 27 29 30 30 31 32 32 33 34 35 36 37 38 38 38 38 38 39 40 40 40
6 7 6 5 6 7 8 10 12 15 18 21 24 25 26 27 27 26 25 25 24 25 26 26 27 28 29 29 30 31 32 33 34 34 35 36 36 36 36 36 36 36 36 36
6 7 8 7 7 9 10 13 14 17 19 21 23 25 25 25 26 26 25 25 25 25 25 26 27 27 28 29 29 29 30 31 32 32 32 33 33 33 33 32 32 33 33 33
7 8 8 8 8 10 12 13 16 18 18 19 21 23 25 25 25 24 24 23 24 24 24 24 23 23 25 26 26 27 27 28 29 29 29 29 29 29 28 28 29 29 30 29
8 8 8 8 9 12 14 15 16 18 18 18 20 22 23 23 23 22 22 22 23 22 22 23 23 24 24 24 24 25 25 25 25 26 26 26 24 24 24 24 26 26 26 27
8 8 9 10 10 13 15 17 18 18 18 18 20 20 20 21 20 20 20 20 20 19 19 19 20 20 21 21 22 21 22 22 22 22 22 22 21 22 23 24 24 24 25 26
8 9 10 11 13 14 16 18 18 19 19 19 19 18 17 18 18 18 18 18 17 17 17 17 18 18 19 19 19 19 19 19 19 19 20 20 20 20 21 22 22 23 23 23
9 10 12 13 14 16 18 18 18 19 19 18 18 17 17 17 17 17 17 16 15 15 16 16 16 16 16 16 17 17 18 18 18 18 18 18 19 19 20 21 21 21 21 21
9 11 13 14 15 16 18 18 19 18 18 17 17 17 17 16 16 15 14 13 13 12 13 13 13 14 14 14 15 16 16 16 17 17 18 18 18 19 19 19 19 19 19 19
9 11 13 14 15 16 18 19 19 19 18 17 17 17 16 15 14 13 13 12 11 12 11 11 12 13 13 14 14 15 16 16 16 16 16 17 17 17 17 17 17 17 17 18
10 12 13 15 16 17 18 19 19 19 18 17 17 16 16 14 13 13 12 12 11 11 11 12 12 12 13 14 13 14 14 14 13 13 14 14 15 15 15 15 15 15 15 15
10 12 14 16 17 18 19 19 19 19 18 18 17 16 15 14 13 12 12 11 11 11 11 12 12 12 12 12 12 12 12 11 11 11 12 13 13 13 13 13 13 13 13 13

GEFSCGP_500_meanwind_096.txt.gz
Wind_Speed
10 9 10 10 11 13 15 16 16 16 16 18 20 20 21 23 26 28 29 28 29 30 29 30 29 30 28 27 25 22 21 20 18 18 18 19 19 19 19 18 18 18 18 19
7 8 8 10 11 12 13 15 16 16 16 17 19 20 20 21 23 25 27 29 29 30 30 32 32 30 28 26 23 22 22 22 20 19 18 19 21 21 21 20 20 20 21 21
6 8 9 10 11 12 14 15 16 16 17 18 19 20 20 21 22 24 27 28 28 29 29 31 31 30 29 26 24 23 23 21 22 22 23 22 23 23 23 23 22 22 23 24
5 7 9 10 11 12 13 15 16 17 18 19 20 22 22 23 24 25 27 28 28 28 28 28 28 28 28 26 26 24 22 21 22 23 24 24 24 23 23 24 24 24 25 25
5 7 9 10 11 11 13 14 16 17 19 21 22 23 24 25 26 26 26 28 27 27 28 29 29 29 27 26 26 24 22 22 22 23 24 25 25 26 26 26 25 26 27 27
6 7 9 9 10 12 14 15 16 18 19 21 22 25 25 25 26 26 27 27 27 28 28 29 29 27 27 27 27 26 25 24 24 24 25 26 27 28 28 28 28 28 28 29
7 7 7 8 11 12 15 15 16 17 18 17 19 23 26 25 25 25 25 25 26 27 28 29 29 28 28 29 29 28 26 26 25 26 27 28 29 30 30 30 30 30 30 30
7 6 7 7 9 10 13 15 15 16 16 16 19 21 23 24 25 25 26 26 26 27 26 27 28 28 28 29 29 28 27 27 27 27 28 30 30 31 32 32 32 32 33 34
7 6 7 7 7 9 11 13 14 14 15 16 18 21 22 23 24 24 24 25 27 28 28 27 28 28 28 28 29 29 29 29 28 29 30 31 31 31 32 33 33 33 35 36
6 6 6 6 7 8 10 12 13 14 15 16 17 19 21 21 22 23 24 26 24 25 27 29 28 29 28 28 28 29 30 30 30 31 32 32 32 32 32 33 34 35 36 37
5 5 5 5 5 7 9 12 13 13 14 16 18 19 19 20 22 23 23 23 23 23 25 26 26 28 28 28 28 29 29 29 30 31 32 33 34 34 34 35 35 36 37 38
4 4 3 3 4 6 8 10 11 12 14 16 18 20 20 21 20 21 21 22 23 25 26 26 26 26 27 27 28 28 29 30 31 32 33 33 34 34 35 36 36 37 38 39
3 3 3 3 5 6 8 9 11 12 14 16 18 20 19 20 21 20 20 21 22 23 24 23 24 24 25 26 27 27 28 29 30 32 33 33 34 34 35 35 36 37 38 39
4 2 2 4 5 6 7 8 10 12 14 16 17 19 20 21 22 21 20 21 22 22 22 23 23 24 25 26 26 27 28 29 30 31 32 33 34 34 35 36 36 37 37 37
4 4 3 4 5 6 7 7 9 10 12 15 16 18 20 21 22 22 22 23 22 21 20 21 22 23 24 25 25 26 27 27 28 29 30 31 32 34 34 34 34 34 35 35
4 4 4 5 6 6 7 8 8 10 12 14 17 18 20 21 23 23 23 22 21 20 20 19 20 21 22 23 24 25 25 25 26 26 27 29 30 30 30 31 32 32 33 33
4 4 5 6 6 7 7 8 10 12 13 15 17 18 19 20 21 21 22 21 21 20 19 19 18 19 21 22 23 23 24 25 25 26 27 27 27 27 28 29 30 30 30 30
4 6 7 6 7 8 9 10 12 13 14 15 16 18 20 20 21 20 20 20 19 18 18 19 19 19 20 20 21 22 23 23 24 24 24 25 25 26 27 27 27 27 27 28
4 6 7 8 9 9 11 12 14 15 15 17 18 19 20 20 20 20 19 18 17 17 17 18 18 18 19 19 21 21 22 22 22 22 23 23 24 24 24 24 24 24 24 25
4 6 8 9 10 11 12 14 16 17 17 18 19 19 19 19 19 18 17 16 15 15 16 16 16 17 17 17 18 19 20 20 21 21 22 22 22 21 21 21 22 22 23 23
4 6 8 10 11 13 14 16 18 19 19 19 19 18 18 18 17 16 16 15 15 15 15 14 15 15 15 15 16 16 16 17 18 18 18 19 19 19 20 20 20 20 21 21
4 6 9 11 12 14 16 17 18 19 19 19 19 19 18 17 16 15 15 14 14 13 13 13 13 13 14 14 14 14 15 15 15 15 16 17 17 18 18 18 18 19 19 19
4 7 9 11 13 14 16 17 18 18 19 19 19 19 18 17 16 15 14 14 13 12 12 12 12 12 12 12 13 13 13 13 13 13 14 14 15 15 15 16 16 16 16 16
4 7 9 11 13 14 16 17 18 18 19 20 19 18 17 16 15 14 14 12 11 10 10 10 10 9 10 10 10 11 11 12 12 12 12 13 13 13 13 13 13 13 13 13
4 7 9 11 13 14 16 17 18 18 19 20 20 19 17 16 14 14 13 12 11 10 10 9 8 8 8 8 8 9 10 10 10 10 11 11 12 12 12 12 12 11 11 11
5 7 9 11 13 15 17 18 18 19 20 20 19 19 17 16 15 13 13 11 10 10 9 8 7 7 7 7 7 7 8 8 8 9 9 10 10 10 10 10 10 10 10 10

GEFSCGP_500_meanwind_102.txt.gz
Wind_Speed
14 14 15 16 17 18 19 20 21 21 23 25 26 27 27 27 28 29 29 29 30 30 29 28 28 28 28 28 29 28 27 28 28 27 26 26 26 27 27 27 27 27 27 26
12 13 14 15 16 17 17 18 19 20 22 23 24 25 24 24 25 26 26 27 28 29 30 29 29 29 29 29 29 30 29 28 29 29 28 27 27 29 29 29 28 27 27 26
11 12 13 14 15 16 16 17 17 19 21 22 22 23 23 23 23 24 25 25 26 26 27 28 29 29 30 30 30 29 27 28 27 27 27 27 29 29 29 29 29 28 26 26
10 11 11 12 13 14 16 17 18 20 21 20 21 22 21 21 22 22 23 24 25 25 26 28 29 29 30 30 29 27 26 27 27 27 27 28 29 29 28 28 29 29 28 27
9 10 10 10 12 13 14 15 17 20 21 21 21 22 21 21 21 21 22 23 25 26 27 28 28 29 29 29 28 28 28 28 27 27 26 25 26 27 27 28 30 30 29 28
8 9 9 9 10 12 12 13 15 18 20 21 20 22 21 21 21 23 23 24 25 26 27 27 28 28 29 29 29 29 28 27 26 25 26 25 26 27 27 29 30 30 30 29
8 9 10 10 10 11 11 12 13 15 17 19 20 21 21 21 21 22 23 25 25 26 27 28 28 29 30 30 29 29 28 28 28 26 26 26 27 27 27 28 28 29 30 31
8 8 10 10 10 11 11 11 12 13 15 16 17 19 19 20 20 22 23 23 24 26 26 27 28 29 29 30 29 29 29 29 29 27 27 27 27 28 28 28 28 29 30 32
7 7 8 9 10 11 11 12 12 13 13 14 15 16 17 20 21 22 22 23 24 25 26 27 28 28 28 28 29 29 29 29 29 28 28 28 28 27 28 28 28 30 30 31
7 7 7 8 10 10 10 10 11 13 14 15 16 16 16 18 19 20 20 21 22 23 25 27 28 29 30 30 30 30 30 28 27 27 27 27 28 29 29 30 30 31 32 33
8 8 7 8 9 10 10 11 11 12 14 15 15 16 17 18 18 19 21 21 21 22 24 25 26 27 28 29 29 29 29 28 27 27 28 28 28 29 30 30 31 32 33 34
7 7 8 8 8 8 9 10 10 12 13 14 15 16 16 18 19 18 18 18 19 20 22 23 24 25 26 26 26 27 27 27 28 28 28 29 29 29 29 30 31 32 33 33
7 7 7 7 8 8 8 8 9 10 12 13 15 16 16 17 17 18 18 18 20 20 20 21 22 22 22 23 24 24 24 24 25 26 27 28 28 28 29 30 30 31 32 33
6 6 6 7 8 8 8 9 9 11 12 13 14 15 16 16 17 18 18 20 20 19 19 19 19 20 21 21 21 23 23 23 23 24 25 26 26 27 27 28 29 30 31 32
5 5 6 6 7 8 8 9 10 11 12 13 14 15 16 16 17 18 18 19 19 19 20 20 19 19 19 19 19 20 21 21 21 22 23 24 25 26 27 27 28 29 29 30
4 4 5 5 7 8 8 9 11 11 12 14 15 16 16 17 18 18 18 18 18 19 19 18 18 17 17 18 18 19 19 19 20 21 22 23 23 24 25 26 26 27 27 27
4 4 5 6 7 8 9 10 10 11 12 13 15 16 17 18 17 17 18 17 17 17 17 17 17 17 18 17 17 17 18 20 20 20 21 22 22 22 23 23 24 24 25 25
3 4 5 6 7 8 9 10 10 11 12 14 15 16 17 18 18 18 17 17 17 17 16 16 17 17 17 17 17 17 17 17 18 18 19 19 20 20 21 22 23 23 23 24
3 3 4 6 7 8 9 11 12 12 13 14 15 17 17 18 18 18 17 17 16 17 16 15 16 17 17 16 16 16 16 16 17 17 17 17 18 18 19 20 21 21 21 21
3 4 5 6 8 9 10 12 13 14 14 15 16 17 18 18 17 17 16 16 15 15 14 14 14 15 15 15 16 16 15 15 15 16 16 17 17 17 18 18 19 19 19 19
3 4 6 7 9 10 12 13 15 15 15 16 17 18 18 18 17 16 15 15 14 14 13 13 13 13 13 13 14 14 14 14 14 15 15 15 15 16 17 17 18 17 17 17
4 5 6 8 9 11 12 14 16 16 17 17 18 18 18 18 17 15 14 13 13 13 12 12 12 11 12 12 12 12 12 12 12 13 13 14 14 15 15 15 15 16 16 16
4 5 6 8 9 11 13 15 16 17 18 18 18 18 18 18 17 15 13 12 12 11 11 11 11 11 11 10 10 10 10 10 11 11 11 12 13 13 14 14 14 14 14 14
4 5 6 7 9 11 13 15 16 17 18 18 18 18 18 18 17 15 13 11 11 10 10 10 10 10 9 8 8 9 9 9 9 10 10 11 11 12 12 12 12 12 12 12
4 4 6 7 9 11 13 15 16 17 18 18 18 18 18 18 17 15 13 11 9 9 8 8 7 6 6 6 7 7 7 8 8 9 9 10 10 10 11 11 11 11 11 11
3 4 5 7 9 11 13 15 16 17 18 18 17 18 18 17 16 15 13 11 10 9 8 7 6 5 5 5 5 6 6 6 7 7 8 8 9 9 10 10 10 10 10 9

GEFSCGP_500_meanwind_108.txt.gz
Wind_Speed
10 10 11 12 13 14 14 15 17 19 20 20 22 22 23 24 25 27 27 28 28 29 30 31 31 31 31 31 30 30 30 29 28 27 27 27 26 26 26 27 29 28 28 29
9 10 11 12 12 13 13 14 16 18 19 20 20 21 21 22 23 25 26 27 27 28 29 30 31 32 33 33 32 31 31 31 30 29 29 29 29 30 30 29 30 30 30 30
9 10 10 11 11 11 12 13 15 16 17 17 19 19 20 21 21 23 24 25 26 27 28 30 31 32 34 34 33 32 32 31 31 31 32 32 31 30 30 30 31 31 31 32
9 10 9 9 10 10 11 13 14 14 14 15 16 17 19 19 20 21 22 24 25 26 27 28 29 31 32 33 33 33 33 33 32 32 33 32 31 30 30 30 30 32 33 34
9 9 9 9 10 10 10 11 12 13 14 15 16 16 18 18 19 19 21 22 24 25 25 26 28 29 30 31 32 33 33 33 33 33 32 32 32 31 31 31 31 33 33 34
9 9 9 9 9 9 9 9 11 12 12 14 15 16 17 18 17 18 19 21 23 24 24 25 26 28 29 30 31 31 31 32 32 32 31 32 32 32 32 32 32 33 33 33
9 9 8 8 8 8 8 7 8 9 10 12 15 16 17 17 17 18 20 21 22 23 24 25 26 28 29 29 29 30 30 31 31 31 31 31 31 32 31 31 32 34 33 34
8 8 9 8 7 8 7 7 7 9 10 12 14 14 15 16 17 18 20 21 22 23 24 25 25 26 27 29 29 29 30 31 30 30 30 30 31 31 30 30 30 32 32 32
7 8 8 7 7 7 7 7 8 9 10 11 13 13 13 14 16 17 18 19 21 22 24 24 24 25 26 27 28 29 30 30 30 30 30 30 30 31 31 31 30 30 30 30
7 6 7 7 7 7 7 8 8 7 10 11 12 15 13 12 14 15 16 18 20 21 22 22 23 24 25 25 26 28 29 30 30 30 30 30 31 31 30 29 28 29 29 29
6 6 6 6 6 8 8 9 9 9 11 10 12 14 13 14 15 16 17 18 19 20 20 21 22 23 24 25 26 27 29 29 30 31 31 32 31 30 29 29 29 30 29 29
6 6 6 7 7 8 8 9 9 10 12 12 12 14 14 15 16 17 18 18 19 19 19 20 21 23 24 25 26 27 28 28 28 29 29 29 29 29 29 29 29 29 28 29
6 5 6 8 9 8 8 8 9 10 12 13 13 15 14 15 16 17 18 17 17 18 19 20 21 22 23 25 25 25 26 26 26 26 27 27 27 27 27 27 28 28 28 29
6 5 5 7 8 8 8 8 9 10 12 13 13 14 14 15 16 17 17 18 18 19 20 20 21 22 23 23 24 24 24 24 24 24 24 24 24 25 25 26 27 27 27 27
5 5 5 6 7 7 8 9 10 11 12 12 13 14 15 16 17 18 18 19 18 19 20 21 22 22 21 21 22 22 21 22 22 22 22 22 23 23 24 24 25 25 25 25
6 5 6 6 7 8 9 10 11 11 12 13 14 15 16 17 18 18 19 19 19 20 21 21 21 21 21 20 21 21 19 19 20 20 20 20 21 21 21 21 21 22 23 24
6 6 6 6 7 8 9 10 11 12 12 13 14 16 16 17 18 18 19 19 19 19 20 20 21 21 19 19 19 19 19 18 17 17 18 18 19 19 19 19 20 21 22 22
6 5 5 5 7 8 10 10 11 12 13 14 15 16 17 17 17 17 18 18 18 18 18 18 18 18 17 18 19 18 17 17 16 16 16 15 15 16 17 18 18 18 18 19
6 5 5 5 7 8 9 10 11 12 13 14 15 16 17 17 17 17 17 17 17 17 17 16 16 16 16 16 16 16 16 15 14 14 14 14 15 15 15 15 15 16 17 18
6 5 4 5 6 8 9 10 11 13 13 14 15 16 16 16 17 17 16 16 15 15 14 13 13 13 13 14 14 14 13 12 12 13 13 13 13 14 14 14 14 15 16 16
6 5 4 5 7 8 9 11 12 13 14 15 15 16 16 16 16 16 15 14 13 12 12 11 11 10 10 11 11 12 12 11 12 12 12 13 13 13 13 13 14 14 15 15
6 5 5 5 6 8 9 10 12 13 14 15 15 16 16 16 15 15 14 12 12 11 10 10 9 9 9 10 9 9 9 10 10 10 11 11 11 12 12 12 12 13 13 14
7 5 5 5 6 7 9 11 12 14 14 15 15 15 16 16 15 14 12 11 10 9 9 8 8 8 8 8 8 8 7 8 8 8 9 9 10 10 10 11 11 12 12 12
7 5 5 5 6 7 9 11 12 14 14 15 15 16 16 15 15 13 11 10 8 7 7 7 7 7 7 8 8 7 7 7 7 6 7 7 8 8 9 10 10 10 10 10
7 5 5 5 6 7 9 10 12 14 14 15 15 15 15 15 14 13 11 9 8 7 6 6 5 5 6 6 6 6 6 5 5 6 6 7 7 7 8 8 8 8 8 8
7 5 4 4 5 7 8 10 12 13 14 15 15 15 15 14 14 12 11 9 7 6 6 5 4 4 4 4 4 4 3 3 4 5 5 6 6 6 6 6 6 6 6 7

GEFSCGP_500_meanwind_114.txt.gz
Wind_Speed
8 8 7 7 10 11 12 12 13 14 17 20 20 21 22 25 25 26 28 28 28 28 29 30 31 31 31 32 33 34 33 32 32 31 30 29 28 28 27 28 27 28 28 28
7 6 7 10 12 12 11 12 14 16 18 20 22 22 22 22 23 25 27 28 28 28 30 31 32 32 33 33 34 36 36 35 33 32 31 31 30 30 30 30 30 29 29 28
7 6 10 12 12 11 12 12 13 15 18 20 21 21 20 20 20 22 24 26 28 29 30 30 32 33 33 34 35 36 37 36 34 33 32 32 32 32 32 31 31 31 30 30
9 10 12 11 10 11 12 12 14 16 17 18 19 20 21 21 20 21 23 25 26 27 28 30 31 32 33 34 35 36 36 35 35 34 34 34 34 34 34 33 33 33 32 31
9 11 12 11 11 12 11 11 13 13 14 16 17 19 20 20 21 21 22 22 24 25 26 28 30 31 32 33 34 35 35 36 35 35 35 35 35 35 35 35 35 34 33 33
10 11 12 11 11 11 10 10 11 12 14 17 18 19 20 21 20 22 22 22 23 24 25 27 28 29 31 32 32 32 33 34 35 35 36 36 35 36 36 36 36 34 34 33
8 10 12 12 11 9 9 8 10 13 14 15 15 18 20 21 21 21 21 22 23 23 24 26 26 28 29 30 31 32 33 34 35 35 36 36 35 36 36 36 35 35 35 34
9 11 12 11 10 8 9 10 11 13 14 14 15 17 20 19 21 22 21 22 22 23 24 25 26 27 28 29 30 31 32 33 34 35 35 35 35 36 36 37 36 35 35 35
10 10 10 11 10 9 8 10 12 14 14 15 16 17 17 20 20 21 21 21 22 22 23 24 26 27 28 28 29 30 31 32 33 34 35 35 35 36 36 37 36 35 35 35
12 11 9 10 9 8 8 9 10 12 14 15 16 18 20 18 18 18 18 19 20 21 21 23 25 26 27 28 28 29 30 32 32 33 34 35 35 36 36 35 35 35 35 35
12 11 9 8 8 8 10 10 11 12 12 13 17 19 21 19 20 20 18 19 20 22 23 24 26 27 28 29 30 30 31 32 32 33 34 35 35 35 35 35 34 34 34 34
13 12 11 10 10 10 10 10 11 12 12 13 16 20 20 20 22 21 21 21 22 23 25 26 26 27 28 30 31 31 32 33 33 34 34 34 35 34 34 34 34 34 34 34
15 13 12 10 12 9 10 11 11 12 13 14 15 20 20 21 22 22 23 23 24 25 26 27 28 28 28 30 31 31 31 31 31 32 32 32 33 33 33 33 33 33 33 33
15 13 11 9 8 7 8 10 11 12 13 15 18 20 21 22 22 22 23 25 26 27 28 28 29 29 28 29 29 29 29 29 30 29 29 29 30 31 31 31 31 32 32 31
14 12 10 8 8 7 8 10 12 14 16 17 20 21 22 22 23 23 25 26 27 27 27 28 28 28 27 27 26 26 27 27 26 26 26 26 26 27 28 28 28 28 28 27
12 11 10 8 7 7 9 11 12 14 16 19 20 22 22 23 24 25 26 27 27 27 27 27 27 26 25 25 24 24 24 24 23 23 23 23 23 22 23 23 24 23 23 23
11 11 10 9 8 9 11 12 13 15 17 19 20 22 23 23 24 26 27 27 27 26 26 26 25 24 23 23 23 22 21 21 21 21 20 20 20 21 21 20 20 20 20 20
11 10 9 8 8 9 12 13 14 17 18 19 21 22 22 23 24 26 26 26 25 25 25 24 23 22 21 20 20 20 20 19 18 17 18 18 17 17 17 18 18 18 18 18
10 10 9 9 8 9 14 13 15 17 18 19 20 22 23 23 24 25 25 25 25 24 22 22 21 20 19 18 18 18 18 17 16 15 16 16 16 16 15 15 15 15 16 16
10 9 9 8 8 11 13 13 15 18 19 20 21 22 23 23 24 24 24 24 22 21 19 19 18 17 16 15 15 15 15 14 13 13 14 14 14 13 12 12 13 13 13 13
10 9 9 9 9 12 13 15 17 18 20 21 22 22 22 23 23 24 24 22 20 18 17 16 15 14 13 13 12 11 11 11 11 11 11 11 11 11 11 11 12 11 11 11
9 9 9 9 9 12 13 16 16 17 20 21 21 21 22 22 23 23 22 20 18 16 15 14 12 11 10 10 10 9 9 8 8 8 8 8 8 9 9 9 9 9 10 10
10 10 10 10 10 12 14 15 17 18 19 20 21 21 21 21 21 21 20 18 16 14 13 11 9 9 8 8 9 9 8 7 7 7 7 7 7 7 8 8 8 9 9 9
10 10 10 10 11 12 13 15 16 17 19 20 20 21 21 21 20 19 18 16 14 12 11 9 8 8 8 7 7 7 6 6 5 6 6 6 6 7 7 8 8 8 8 9
11 10 10 10 10 12 13 15 16 17 18 19 20 20 21 20 19 18 16 14 12 11 9 9 8 7 7 6 7 7 5 5 5 5 5 6 6 6 7 7 7 7 8 8
10 9 9 10 10 12 13 14 15 16 17 18 19 20 20 19 18 17 15 13 11 9 9 8 7 6 6 6 5 5 5 5 5 5 5 5 5 5 5 6 6 6 6 6

GEFSCGP_500_meanwind_120.txt.gz
Wind_Speed
14 14 13 13 12 12 11 10 10 10 11 13 14 15 16 17 20 21 22 23 24 25 27 28 29 30 30 30 30 31 31 30 30 30 30 30 30 29 29 28 27 25 25 24
14 14 13 13 12 12 11 10 10 12 14 15 16 17 18 19 21 22 23 23 22 23 24 26 28 29 30 30 31 31 32 32 31 31 31 32 32 31 30 29 28 28 27 26
13 14 14 13 12 12 11 11 11 11 13 16 17 19 20 20 21 22 23 23 22 23 23 25 26 28 29 30 31 31 32 31 31 32 33 33 33 32 30 30 29 28 27 27
15 15 14 12 12 11 12 12 13 13 14 15 17 19 20 21 21 21 21 22 22 23 24 24 25 26 28 29 30 31 32 33 32 32 33 33 33 33 32 31 30 29 28 27
16 15 13 12 12 12 13 13 13 13 15 17 18 19 20 20 20 20 20 21 21 22 23 23 23 24 26 28 29 30 32 32 32 32 33 34 34 33 32 32 32 31 29 29
16 15 13 12 13 13 13 13 13 13 15 16 16 19 19 18 18 19 20 20 20 21 23 24 24 24 25 27 28 29 30 31 32 32 33 33 33 33 33 33 32 32 31 31
15 13 12 11 11 11 12 12 13 14 13 13 15 17 16 17 18 19 18 20 21 22 22 23 24 24 25 26 27 28 29 29 30 31 32 32 32 33 33 32 31 31 31 31
13 12 11 11 10 10 11 13 13 13 12 12 12 13 14 15 16 18 18 19 20 21 22 21 22 23 24 25 26 26 27 28 29 30 31 32 32 31 31 31 31 31 31 31
12 10 10 10 10 10 10 11 12 13 13 13 13 14 15 16 16 17 19 19 19 20 20 20 21 22 24 25 25 26 28 28 29 30 31 31 31 31 32 32 32 32 32 31
12 11 10 11 11 10 10 11 12 12 12 13 14 15 16 16 16 16 17 18 18 19 19 20 22 23 24 25 25 26 27 29 30 30 30 30 31 31 31 32 31 31 31 31
12 12 11 12 12 11 11 12 12 12 13 14 16 17 17 18 17 17 17 17 18 19 20 21 23 23 23 24 26 27 28 28 29 29 29 30 31 31 31 31 30 30 31 31
12 12 12 12 12 12 12 12 12 13 14 15 16 18 18 18 19 19 18 19 20 22 22 22 23 24 25 26 27 27 27 28 28 28 29 30 30 30 29 29 30 30 30 30
12 12 12 12 12 12 12 12 12 13 14 15 17 18 19 19 19 19 19 20 21 23 24 25 26 26 26 27 27 27 27 27 28 27 28 28 29 29 29 29 29 29 28 28
12 12 12 11 12 12 13 12 12 14 16 17 18 19 20 20 20 21 21 23 24 26 26 27 27 27 27 27 27 27 26 26 26 26 26 26 26 26 26 26 27 26 26 26
13 13 12 12 11 11 12 13 13 15 17 18 18 19 20 21 22 23 24 25 26 27 27 28 28 27 27 26 26 26 26 25 25 25 24 24 24 24 24 24 24 24 23 23
13 13 12 12 12 13 13 12 13 15 16 17 18 19 20 21 22 24 25 26 27 28 28 28 27 26 26 25 24 24 23 23 22 21 21 21 21 20 20 21 21 21 20 20
13 12 12 12 12 13 13 12 13 14 15 17 19 20 21 23 24 24 25 27 27 28 27 26 24 23 23 22 21 21 20 20 19 18 17 17 17 17 17 18 18 18 17 17
14 13 12 11 11 10 11 11 13 15 16 17 19 20 22 23 24 25 26 26 26 26 25 23 22 21 21 20 19 18 18 17 16 16 15 15 15 15 15 15 15 15 15 15
14 13 12 11 10 9 10 11 13 14 15 17 18 20 22 23 24 25 25 25 25 24 22 21 20 19 18 17 16 15 15 15 14 13 12 12 12 12 11 11 12 12 13 13
13 12 12 10 9 9 9 11 12 14 15 17 19 20 21 23 24 24 24 23 22 21 20 18 18 17 15 14 13 13 12 12 11 11 10 10 9 8 8 8 9 10 11 11
13 11 11 10 9 9 9 11 13 15 17 19 19 21 22 22 23 23 22 21 20 18 17 16 15 14 12 11 11 10 10 9 8 8 8 8 7 6 6 6 7 7 7 8
12 11 10 9 9 8 9 11 13 15 17 19 20 21 21 22 22 22 21 19 18 16 15 13 12 11 10 9 9 8 7 7 6 6 5 5 5 5 5 4 4 5 5 6
12 11 11 10 8 8 9 11 13 15 17 19 20 20 21 21 21 21 19 18 16 14 12 11 10 8 8 7 6 5 5 4 5 4 3 4 4 4 4 4 3 3 3 3
12 12 10 10 8 7 8 10 13 15 17 19 19 19 20 20 20 19 17 16 14 12 10 9 8 7 5 4 4 3 2 2 2 3 2 2 2 2 2 2 2 2 2 3
11 10 8 7 7 6 7 10 13 15 17 18 19 19 19 19 18 17 15 14 12 10 9 8 7 6 4 3 3 3 3 3 3 3 2 1 1 1 1 2 2 2 2 3
10 8 6 5 6 6 8 10 12 15 17 18 19 19 18 18 17 15 14 12 10 9 8 8 7 7 5 5 4 4 4 5 5 5 5 4 4 4 4 3 3 2 2 2

GEFSCGP_500_meanwind_126.txt.gz
Wind_Speed
15 15 16 17 17 17 17 17 18 19 21 21 22 21 21 22 22 22 23 24 24 23 24 25 26 26 26 26 26 26 26 27 27 27 27 28 29 30 30 30 30 30 30 29
14 15 16 17 17 16 16 16 17 17 18 19 19 20 20 19 20 20 21 22 23 23 23 24 25 25 25 25 26 26 27 27 27 27 28 29 30 29 30 31 31 30 29 29
14 15 17 17 17 16 15 15 15 15 16 17 17 17 18 18 18 18 19 19 20 21 21 22 24 24 24 25 25 26 26 27 26 27 29 30 30 30 30 31 31 30 29 29
15 16 16 16 16 15 14 14 15 15 15 15 16 16 16 16 16 16 18 18 19 20 21 22 22 23 24 24 25 26 26 26 27 27 28 28 29 30 31 31 31 30 30 30
16 16 16 15 15 14 14 15 15 15 15 15 16 16 15 16 16 17 18 18 18 19 20 21 22 23 24 24 25 25 26 27 27 27 28 28 29 30 30 31 31 31 30 30
17 16 16 15 15 14 14 15 15 15 16 16 15 16 15 15 15 16 18 18 19 19 20 21 22 23 24 24 25 25 26 27 28 28 28 28 28 29 29 30 30 30 30 30
17 16 15 15 15 14 14 14 14 15 15 15 15 15 15 14 15 15 17 17 18 19 20 21 21 22 23 24 25 26 26 27 28 28 28 28 28 29 30 30 30 29 30 30
17 16 15 14 13 13 14 14 14 14 14 14 14 14 14 15 15 16 17 17 19 20 21 21 22 22 23 24 25 26 26 26 27 27 28 28 28 28 28 28 29 29 30 30
15 15 14 14 14 14 13 13 13 14 14 14 14 14 15 16 16 18 18 18 19 20 20 21 22 23 24 25 25 25 26 27 27 27 27 28 28 27 27 27 28 28 29 29
14 14 14 14 13 13 13 13 13 13 14 14 14 14 14 14 15 16 17 18 19 20 22 22 22 23 24 25 26 26 26 27 27 27 27 27 27 27 27 27 27 27 28 29
15 15 14 14 13 12 12 12 13 14 14 14 14 13 14 15 16 17 19 20 21 21 22 23 24 24 25 27 27 27 27 27 27 27 27 27 28 28 28 27 26 27 27 27
15 15 14 14 13 13 13 12 12 13 14 14 15 14 15 16 17 19 20 22 23 23 24 25 25 26 26 27 27 27 27 27 27 27 28 28 28 28 27 27 26 26 26 26
14 14 14 14 14 13 13 12 13 13 14 15 16 16 16 17 19 20 22 23 23 24 25 26 26 27 28 28 28 28 27 28 28 28 27 27 27 27 26 26 25 25 25 26
13 13 13 13 13 12 12 12 14 14 16 16 17 17 18 19 21 22 23 24 24 26 27 28 28 28 29 29 29 29 29 28 28 28 27 27 26 25 25 24 24 24 25 25
14 13 12 12 11 11 11 12 13 15 16 17 18 19 20 21 23 24 24 25 26 27 28 29 29 29 29 29 29 29 28 28 27 27 26 25 24 24 24 23 24 23 23 23
14 13 12 11 11 11 12 12 13 15 16 18 19 20 21 22 22 24 25 26 27 27 28 29 29 29 28 28 27 27 27 26 26 25 24 23 22 22 21 21 22 22 21 21
13 13 13 13 12 12 12 12 13 15 16 18 19 20 20 21 23 24 25 26 27 27 28 28 27 27 26 26 25 24 25 24 23 22 21 20 20 19 19 19 19 19 18 18
13 13 13 12 11 11 11 12 13 14 15 17 19 20 21 22 23 24 26 26 26 26 26 25 24 24 23 23 22 23 22 20 19 18 17 17 16 16 16 16 15 15 15 16
13 13 13 12 11 10 10 12 13 14 14 16 18 20 21 22 23 25 25 25 25 24 23 23 22 21 20 20 19 18 17 17 16 15 14 14 13 13 13 13 13 13 13 13
13 13 12 12 11 11 10 11 12 14 15 17 19 20 22 23 23 24 24 23 23 22 21 20 19 18 17 17 16 15 14 14 13 13 12 11 10 11 11 10 11 11 10 11
13 13 12 11 11 11 10 11 12 14 16 17 19 21 21 22 22 22 22 22 21 20 19 18 16 15 15 15 14 13 13 12 11 10 10 10 9 8 8 8 8 8 9 9
12 12 12 11 11 10 10 11 13 15 16 18 19 20 21 21 21 21 21 20 19 17 16 15 14 13 13 12 11 11 10 9 8 8 7 8 7 7 7 6 6 6 7 7
12 11 10 10 10 10 11 12 13 15 17 18 19 20 20 20 20 20 19 18 16 15 13 12 11 11 10 10 9 8 8 7 6 6 6 6 7 6 5 5 4 4 5 5
10 10 10 9 10 11 12 12 12 14 16 17 18 19 19 19 18 17 16 15 13 12 12 10 10 9 8 7 7 6 6 6 5 5 5 6 6 5 4 3 3 3 3 4
9 9 9 8 9 10 10 11 11 13 15 16 17 18 18 17 17 16 14 12 12 11 10 9 9 8 7 6 6 6 6 6 5 5 5 6 6 5 5 5 5 4 4 3
9 9 9 8 7 8 9 10 11 12 14 15 16 17 17 16 15 14 12 11 11 10 10 9 8 7 7 7 6 7 7 7 7 7 7 8 8 8 7 7 7 7 7 6

GEFSCGP_500_meanwind_132.txt.gz
Wind_Speed
12 12 13 14 14 15 14 13 14 15 15 17 18 19 20 21 21 21 21 21 21 21 22 22 23 23 23 23 24 23 23 25 25 26 26 27 29 29 30 30 29 29 30 31
12 13 14 14 14 14 13 12 13 14 15 15 17 18 19 19 19 20 20 20 20 20 21 21 21 22 23 23 24 24 24 25 26 27 27 28 28 29 30 30 30 30 31 32
13 13 13 13 13 13 13 12 13 14 13 14 14 15 16 17 18 19 20 20 20 20 20 20 21 22 23 23 24 25 25 25 26 27 28 28 29 29 30 30 31 32 32 32
14 13 13 12 12 12 12 13 12 12 11 13 13 12 15 16 16 17 18 18 18 19 19 20 20 21 22 23 24 25 25 26 26 27 28 28 29 29 30 31 31 32 32 33
13 13 12 12 12 12 13 13 12 12 11 12 12 11 15 15 15 16 16 16 17 18 18 19 19 20 21 22 23 24 25 26 26 27 28 28 29 30 30 30 31 32 32 33
14 13 12 13 13 13 12 11 11 11 9 10 11 10 13 13 13 14 15 16 17 17 17 18 19 20 20 21 22 24 25 26 27 28 28 29 29 30 30 31 31 32 32 33
13 13 12 12 13 12 12 10 8 8 8 10 12 11 12 12 13 14 15 15 15 17 18 19 20 21 22 22 23 24 25 26 27 28 29 29 30 30 30 31 31 32 32 32
13 13 13 12 12 12 11 10 9 9 9 10 12 11 13 13 14 15 15 16 16 17 19 20 21 22 23 24 25 26 26 27 28 28 29 30 30 30 30 30 30 31 31 31
14 13 13 12 12 12 11 11 10 9 9 9 11 12 13 13 14 15 15 16 17 19 20 21 22 23 24 25 26 26 27 28 27 27 27 28 28 29 29 29 29 30 30 30
13 13 13 13 13 13 13 12 11 9 8 9 10 12 12 14 14 15 16 17 18 20 21 22 23 25 26 27 27 27 27 27 27 27 27 27 27 27 28 29 29 29 29 30
13 12 12 13 13 13 13 12 11 10 10 10 10 12 14 14 15 16 17 18 20 21 22 24 25 26 26 27 27 27 27 26 27 27 27 27 27 28 28 28 29 29 29 29
13 13 12 12 13 13 13 12 11 11 11 11 12 14 15 15 16 18 18 20 21 23 24 25 26 27 27 27 27 27 27 27 27 27 27 28 28 28 28 28 29 28 28 29
14 13 12 11 12 13 13 12 12 12 12 12 13 15 17 16 17 19 20 21 23 24 25 26 27 27 27 27 28 27 27 28 28 28 27 28 28 28 28 28 28 28 27 27
14 13 13 12 12 12 12 12 12 12 12 13 14 16 18 18 19 21 22 23 24 25 25 26 27 27 27 27 27 27 27 27 26 26 27 27 28 27 27 28 28 27 26 26
14 14 13 14 14 13 13 13 13 13 13 14 15 17 18 20 21 22 23 24 25 26 26 27 27 27 27 27 27 26 26 26 26 26 26 27 27 27 27 26 26 25 25 24
15 14 13 13 13 13 13 12 13 14 14 16 17 19 19 21 22 22 23 24 26 27 27 27 27 26 26 26 26 26 26 26 25 25 25 26 26 25 24 24 23 23 22 22
14 14 13 12 12 12 12 12 13 13 14 16 17 19 19 20 21 23 24 25 26 26 26 26 25 25 25 25 24 24 24 24 23 23 23 23 22 22 22 21 21 21 20 20
11 12 12 12 12 12 11 11 11 12 14 15 17 18 19 20 22 23 24 25 25 25 25 24 24 23 23 23 22 22 22 22 22 21 21 20 20 19 19 18 18 18 17 17
10 11 11 11 11 11 11 11 12 13 14 16 17 18 20 21 23 23 24 24 24 23 23 22 21 21 21 21 21 20 20 19 19 18 18 18 17 16 15 14 14 14 14 14
9 10 10 9 10 10 12 12 12 13 15 16 17 19 20 22 22 23 23 22 22 21 20 20 19 19 19 19 18 17 16 16 16 15 14 13 12 11 11 11 11 11 11 11
9 9 9 9 9 10 10 10 11 13 15 16 17 19 20 21 22 22 22 21 20 18 18 18 17 17 16 16 14 14 13 13 12 12 11 10 9 8 8 8 8 9 9 8
9 9 9 9 9 10 10 10 11 13 14 15 17 18 20 21 20 20 19 18 17 16 16 15 14 13 13 12 11 11 10 10 9 8 7 7 6 6 6 6 6 6 6 5
8 9 9 9 10 10 10 10 11 12 14 15 16 18 19 19 18 17 16 16 15 14 14 13 12 10 10 10 9 9 8 8 7 6 6 6 5 4 4 3 4 4 3 3
7 7 8 9 9 10 10 10 11 12 13 15 16 17 17 17 16 15 14 14 13 13 12 10 9 7 7 7 7 7 7 6 7 6 5 5 4 4 3 3 2 1 0 1
6 6 7 7 8 9 9 10 10 11 13 14 15 16 15 14 14 13 12 12 12 11 10 9 8 7 7 7 7 7 7 7 7 6 6 6 6 5 5 5 5 5 4 4
6 6 7 7 7 8 8 9 10 12 13 14 15 14 14 13 12 11 11 11 10 10 9 8 8 8 7 7 7 7 8 8 8 8 8 8 8 8 8 9 9 9 8 8

GEFSCGP_500_meanwind_138.txt.gz
Wind_Speed
12 12 11 11 11 11 10 11 13 14 14 13 14 17 16 17 17 16 17 19 19 20 21 21 21 22 22 23 23 24 25 25 26 27 28 29 29 29 29 30 30 30 31 31
12 12 11 12 13 12 12 13 13 14 15 14 14 16 17 18 19 18 19 19 20 20 20 22 22 21 22 23 24 25 25 26 27 28 28 29 30 30 30 30 30 31 31 31
11 10 13 14 15 14 13 14 16 16 16 15 15 17 18 18 18 18 18 19 19 19 20 21 21 21 22 23 24 25 25 26 27 28 28 29 29 30 30 31 31 31 32 32
11 13 15 15 14 15 14 14 16 16 15 14 14 16 18 19 19 18 18 19 20 20 20 22 22 23 23 24 24 25 26 27 27 27 28 29 29 30 31 32 32 32 32 32
13 14 14 14 14 15 13 13 14 15 15 15 16 16 22 21 20 18 17 18 19 20 21 22 23 23 23 23 24 25 26 27 27 28 29 30 30 31 32 33 33 33 33 32
13 13 13 13 14 15 14 12 12 14 16 18 17 17 19 19 17 17 17 17 18 20 21 22 22 23 23 24 25 25 26 27 28 29 29 30 31 31 32 33 32 33 33 32
13 13 14 14 14 14 14 12 13 14 15 16 15 16 17 18 18 17 17 18 18 19 20 21 21 22 23 24 25 26 27 28 29 30 30 31 31 31 32 32 32 32 32 32
13 13 12 12 12 13 13 13 12 12 13 12 11 15 17 17 18 17 16 18 18 19 20 21 22 22 23 24 26 27 28 29 30 30 31 31 32 31 32 31 31 31 31 31
13 12 11 12 12 12 12 13 11 10 12 13 12 14 19 16 16 16 17 19 19 19 20 21 22 23 24 25 26 27 28 30 30 30 30 31 31 31 30 30 30 30 30 30
11 12 11 11 11 12 12 12 13 12 12 13 13 14 17 15 15 18 18 19 19 21 21 22 24 25 25 26 27 28 29 29 30 31 31 30 30 30 30 30 30 30 30 29
14 15 14 13 12 11 12 13 13 13 12 13 16 17 18 18 18 19 19 20 21 22 24 25 26 27 27 28 28 29 30 30 30 30 29 29 29 29 29 29 29 29 29 29
14 14 14 14 13 12 12 12 13 14 14 14 16 20 20 20 22 22 20 21 23 24 26 27 28 28 28 29 29 29 29 29 29 29 29 28 28 28 28 29 29 29 29 28
16 15 13 13 13 13 13 12 12 15 16 16 16 20 22 24 24 23 23 24 25 26 27 28 28 29 29 30 30 29 30 29 29 29 28 27 27 27 27 27 28 28 28 28
15 15 14 12 10 11 11 11 13 15 15 15 17 22 24 26 24 23 25 26 27 28 28 29 29 29 30 30 30 30 30 29 28 28 27 27 26 26 27 27 26 27 27 27
14 15 14 13 12 13 12 12 13 15 15 15 18 22 24 25 25 25 26 27 28 28 29 30 30 29 29 29 29 29 28 27 27 26 27 26 26 26 26 26 26 26 26 25
11 10 12 13 12 12 12 12 14 14 15 17 20 23 24 24 26 27 27 27 27 28 29 29 29 29 28 28 28 28 27 26 26 26 26 25 25 25 25 25 24 24 23 22
10 9 9 10 10 11 12 13 12 13 16 17 20 22 23 25 27 26 26 27 28 28 27 27 27 27 26 27 26 26 25 25 25 25 25 24 24 24 23 21 21 21 20 20
8 9 8 8 9 11 11 12 13 14 15 17 19 21 23 25 25 25 26 27 27 26 25 25 25 25 26 25 25 25 24 23 23 22 22 22 21 20 20 19 19 19 18 17
7 8 7 7 8 10 10 12 15 16 17 17 19 21 23 24 25 25 25 25 25 24 24 23 24 23 23 23 23 22 21 21 21 20 19 19 18 17 17 16 15 15 15 14
6 6 7 8 9 10 12 12 14 15 16 17 19 22 23 23 24 24 24 23 23 22 22 22 22 21 20 19 19 18 18 17 17 16 16 15 14 14 14 13 12 12 13 12
6 6 7 8 9 10 11 12 13 15 17 17 18 20 22 23 23 23 22 21 22 22 21 20 19 18 17 17 17 16 16 15 15 14 14 13 13 13 12 11 11 10 9 9
7 6 8 9 11 11 11 12 13 15 17 17 18 19 21 21 21 21 20 20 20 20 19 17 16 15 14 14 14 13 13 13 12 12 11 11 11 11 10 9 8 7 7 7
7 7 8 10 10 12 13 13 13 15 16 17 18 19 20 20 20 19 19 19 19 18 17 15 13 13 12 11 11 11 11 10 10 10 9 9 8 8 7 7 6 5 5 5
7 8 9 10 10 11 13 13 14 15 16 17 18 18 19 18 18 18 18 17 16 15 14 12 12 11 11 10 10 10 9 9 9 8 7 7 6 6 6 5 5 5 4 4
9 8 9 10 10 12 11 12 14 15 15 16 17 17 17 17 16 16 16 15 13 13 12 11 11 11 10 10 9 9 9 9 8 8 7 7 6 6 6 5 5 5 5 5
8 9 10 10 11 11 12 12 13 14 15 15 16 16 15 15 14 13 13 13 12 12 11 10 10 9 9 9 9 8 9 9 9 9 8 8 7 7 7 7 7 7 6 7

GEFSCGP_500_meanwind_144.txt.gz
Wind_Speed
16 16 15 14 15 15 16 16 14 12 12 11 11 10 12 13 13 14 14 15 16 16 17 17 18 20 20 20 19 19 19 21 22 23 24 24 24 24 25 25 26 26 26 27
16 14 14 15 15 15 15 15 14 12 12 12 12 13 12 13 15 15 15 15 15 16 16 16 17 18 20 22 22 20 20 21 22 23 24 25 25 26 26 27 27 27 27 28
16 16 16 15 15 15 14 13 12 12 12 12 13 14 14 13 14 14 14 14 14 16 16 16 17 18 20 20 20 20 21 22 22 23 24 25 26 26 27 28 28 28 28 29
17 17 16 15 13 13 13 12 11 11 13 14 16 17 15 15 14 13 13 12 13 15 16 16 16 18 20 20 20 21 22 22 23 23 24 25 26 27 28 29 29 29 29 29
15 14 15 15 14 14 13 12 12 13 14 16 17 18 17 16 15 14 14 14 15 15 16 16 17 18 19 19 20 21 22 23 24 25 26 26 27 27 28 28 29 30 29 29
15 14 14 14 15 15 14 14 14 15 15 16 17 19 20 18 17 15 15 14 14 14 15 16 17 18 20 21 21 22 22 24 25 26 26 27 28 28 28 29 29 29 29 29
16 15 14 14 15 16 16 16 16 16 16 16 16 18 19 17 16 15 14 14 15 15 15 17 18 19 20 21 22 22 23 24 25 26 27 27 28 28 28 28 29 29 29 29
15 15 15 15 15 16 15 15 15 15 15 15 14 15 14 12 12 14 15 14 15 14 15 16 18 19 20 21 22 23 24 24 25 26 27 27 27 27 28 28 28 28 28 28
13 13 14 15 16 15 14 15 14 15 15 15 14 14 13 12 13 15 15 15 14 14 16 16 17 19 20 22 23 23 24 25 26 26 27 28 28 28 28 28 28 28 28 28
12 12 14 14 15 15 15 16 15 15 16 16 15 14 13 13 14 15 17 15 16 17 16 17 18 19 21 23 24 25 25 26 27 28 28 28 28 28 28 28 28 27 27 27
12 13 13 14 15 15 16 17 17 17 17 17 17 16 15 16 16 17 17 16 18 19 18 20 20 21 22 23 24 26 26 27 28 29 29 28 28 28 27 27 27 27 27 27
11 13 14 14 15 15 16 17 17 17 17 17 18 17 17 18 18 18 18 18 19 21 21 20 21 22 22 23 25 26 27 28 28 28 28 28 28 28 28 27 27 27 27 27
11 12 13 15 15 16 17 18 18 18 18 18 18 18 18 19 19 20 20 21 22 22 22 22 22 22 22 24 25 26 26 27 27 27 27 27 27 27 27 27 27 27 27 27
10 11 11 13 14 15 17 17 17 18 18 18 18 19 19 20 20 21 22 23 24 23 23 23 24 24 24 25 26 26 26 26 26 25 25 26 25 25 25 25 25 25 25 24
10 10 10 11 12 13 14 16 16 16 17 17 17 18 18 19 20 22 24 24 23 22 22 23 24 25 24 24 24 25 25 25 24 24 23 23 23 23 23 23 23 22 21 21
9 10 11 10 10 11 12 13 14 14 15 16 17 17 17 19 21 21 23 24 23 22 23 24 24 23 23 23 23 24 24 23 22 22 21 20 20 20 20 20 20 19 19 19
8 9 9 10 9 10 10 10 11 13 13 14 16 16 18 20 21 20 22 22 22 23 24 24 23 23 23 22 22 22 21 21 20 19 18 18 18 18 18 18 18 18 19 19
7 7 9 9 9 10 9 9 10 11 13 13 15 17 18 19 19 20 22 23 23 23 23 22 22 21 20 19 19 19 18 18 17 16 16 17 17 16 17 16 17 17 17 16
6 6 7 8 9 8 8 8 10 10 11 12 14 16 18 18 19 20 20 21 21 21 20 19 19 18 17 15 15 15 15 15 15 15 14 15 15 15 15 15 16 15 14 13
6 6 6 6 7 7 7 8 8 10 11 12 14 16 17 18 19 19 19 19 20 19 17 16 16 15 13 13 13 13 13 13 12 12 13 13 13 14 14 14 13 13 13 12
5 5 5 4 5 5 6 8 9 11 12 14 15 16 16 17 17 16 17 17 16 15 15 15 14 13 12 11 11 12 12 12 11 11 11 12 12 12 13 12 11 11 10 9
4 3 3 4 5 6 7 8 9 11 12 14 15 15 16 16 15 16 16 16 14 14 14 14 13 12 11 10 9 10 10 10 10 10 10 10 10 10 10 9 9 8 7 6
3 4 5 5 6 7 8 8 9 11 12 13 14 15 15 16 16 16 15 15 13 13 13 12 12 10 9 9 9 10 9 9 9 9 9 9 8 8 8 7 6 6 6 6
4 4 5 6 7 8 8 9 10 12 12 13 13 13 14 14 15 15 14 13 12 11 11 10 10 9 9 9 9 9 8 7 8 8 8 8 7 7 7 7 7 7 7 7
4 5 6 7 8 7 7 9 10 11 12 13 13 12 13 13 13 12 12 11 10 10 9 9 8 8 9 9 9 9 9 9 8 8 8 8 8 8 8 8 9 8 9 9
6 7 7 7 7 8 8 8 9 10 10 11 11 12 12 12 11 10 9 9 9 9 9 9 8 9 9 9 9 10 9 9 10 9 9 9 10 10 11 11 11 11 11 10

GEFSCGP_500_meanwind_150.txt.gz
Wind_Speed
17 17 17 18 19 19 19 19 19 20 20 19 18 17 16 16 16 15 15 15 15 15 14 15 16 17 16 16 18 18 18 17 18 19 20 21 21 21 22 22 22 23 24 24
17 17 18 18 19 18 17 17 18 18 18 16 15 14 13 13 13 14 15 15 15 16 15 15 15 16 16 16 17 16 16 17 19 20 21 22 22 22 22 23 23 24 24 25
17 17 17 17 17 17 16 16 17 17 17 15 13 12 12 12 13 14 15 15 15 14 15 15 14 15 16 16 17 18 19 20 21 22 22 23 24 23 23 24 24 25 25 26
17 17 16 16 15 16 15 16 16 16 15 16 15 13 12 12 12 12 14 15 15 14 14 14 15 16 17 18 19 20 21 22 22 22 23 24 24 24 24 25 26 27 27 27
18 17 16 15 15 15 16 16 15 14 14 15 14 14 12 12 11 12 14 15 14 15 15 16 17 17 18 19 20 21 22 23 23 24 24 24 24 25 25 26 26 27 27 28
18 18 16 15 15 15 15 15 15 15 15 15 14 14 12 11 13 14 14 14 15 16 16 17 18 19 20 21 21 22 23 24 24 24 24 24 24 25 26 26 26 27 27 28
18 18 17 16 15 16 16 15 16 16 16 16 14 14 12 12 13 14 13 14 15 17 18 19 20 20 21 22 23 24 25 25 24 24 24 24 25 25 26 27 27 27 28 28
17 17 17 16 15 16 16 16 16 17 17 16 15 14 13 13 13 12 13 14 15 17 19 21 21 21 22 23 24 24 25 24 25 25 25 25 26 27 27 28 28 28 29 29
17 17 17 16 16 16 16 16 17 17 17 17 16 15 13 13 13 13 14 15 17 19 20 22 22 23 23 24 25 26 26 26 26 26 26 26 27 27 28 29 29 28 28 28
15 16 16 17 17 17 17 17 17 17 18 17 17 16 15 15 14 15 15 16 18 19 20 21 22 24 24 25 25 26 26 26 27 28 28 28 28 28 28 28 29 28 28 28
14 15 16 17 17 17 17 17 18 18 19 19 18 16 15 15 15 16 17 18 19 20 21 21 22 23 24 25 26 26 26 27 28 28 28 28 28 28 28 29 29 28 28 28
13 14 15 16 16 16 17 17 17 18 19 19 19 17 15 16 17 17 18 18 20 21 21 21 22 23 24 25 26 26 27 28 28 28 27 27 28 28 28 28 28 28 28 27
12 13 14 14 16 16 16 17 17 17 18 18 18 17 16 17 18 19 19 20 20 21 21 22 22 23 24 25 26 26 26 27 27 27 27 27 27 27 27 27 26 26 26 25
11 11 12 13 14 15 15 15 15 16 17 17 17 17 17 18 19 19 20 20 21 21 22 22 23 24 24 24 24 24 25 25 25 25 25 25 25 25 25 25 24 24 24 24
9 9 10 11 11 12 12 13 13 14 15 16 17 17 18 18 19 19 20 21 22 22 22 22 23 22 21 21 23 23 24 23 22 22 22 22 22 23 23 22 22 22 21 21
8 8 9 9 9 9 10 10 12 13 14 15 16 17 18 18 18 19 20 21 22 22 22 21 21 21 20 20 20 20 20 20 20 19 20 20 20 20 20 20 19 19 19 19
7 7 8 8 8 9 9 10 11 12 12 13 15 15 16 17 18 19 20 21 21 22 21 21 21 19 18 18 17 17 17 17 17 17 18 17 17 18 18 17 17 17 17 17
7 6 7 7 8 8 8 9 11 11 12 13 14 14 16 16 17 18 19 20 21 21 20 19 18 17 16 16 15 15 15 15 15 15 15 15 16 16 16 15 15 15 15 15
6 6 7 7 8 8 8 8 9 10 11 12 13 14 15 16 17 17 18 19 19 18 18 17 16 14 14 14 14 14 14 13 13 14 14 14 14 14 14 14 13 14 14 13
6 7 7 7 8 8 8 9 9 11 12 13 14 15 15 15 16 17 17 17 16 17 16 15 14 13 13 12 11 11 12 11 11 11 11 12 12 12 12 13 13 13 12 12
6 7 7 7 7 8 8 9 9 11 12 13 14 14 15 15 15 15 15 15 16 15 15 13 12 11 10 10 10 10 9 9 9 9 10 10 10 10 11 11 11 11 10 9
6 6 7 7 8 8 8 8 9 10 12 13 13 14 14 14 14 14 14 14 14 14 13 11 10 9 9 9 9 8 8 8 8 8 8 8 9 10 10 10 9 8 7 7
5 6 6 7 7 8 8 9 9 11 12 12 12 13 13 14 14 13 13 13 12 12 10 8 8 8 7 7 7 7 7 7 7 7 7 8 8 9 9 8 8 8 7 7
5 6 6 7 7 8 8 9 10 11 11 12 12 12 12 13 12 12 11 11 10 9 9 7 7 6 6 6 6 6 6 7 7 7 6 6 7 8 8 8 7 8 8 8
5 5 6 7 8 8 9 9 10 10 10 10 11 10 10 10 10 10 9 8 8 8 7 6 5 5 5 6 6 5 7 7 7 7 7 7 7 8 9 9 9 9 9 9
4 4 5 6 7 7 8 8 9 9 9 9 9 10 9 10 9 8 7 6 6 6 6 6 5 6 6 6 6 6 7 7 8 8 8 8 8 9 10 10 10 10 10 10

GEFSCGP_500_meanwind_156.txt.gz
Wind_Speed
17 16 16 17 16 16 15 15 15 15 15 15 15 15 16 17 18 18 18 18 17 18 17 17 17 17 16 16 17 17 18 19 19 19 19 21 22 22 23 23 23 24 24 25
16 17 17 16 16 14 14 15 15 14 14 13 13 14 15 16 17 17 17 17 17 17 17 18 18 17 16 17 16 16 17 18 19 19 21 22 21 22 23 23 24 25 25 25
16 17 16 15 14 14 13 14 15 15 14 14 14 14 14 14 15 16 16 16 16 17 17 17 17 16 16 16 16 16 16 17 19 20 20 21 22 23 23 24 25 25 26 26
16 15 15 14 14 14 14 13 13 13 12 13 12 11 13 13 14 15 16 15 16 16 17 17 15 15 16 16 16 17 18 19 20 20 21 22 23 24 24 25 26 26 27 27
15 15 14 14 14 14 14 13 12 12 12 13 13 11 13 14 14 14 15 15 16 17 17 16 15 16 17 18 18 19 20 21 22 22 22 23 24 25 26 26 27 27 27 27
15 14 14 14 14 14 13 13 13 12 12 13 13 13 13 13 13 14 15 16 16 16 16 16 16 17 19 20 20 21 22 22 23 24 24 25 25 27 27 27 27 27 27 28
15 15 14 14 14 14 13 12 11 12 13 14 14 13 13 14 14 14 15 15 15 16 17 18 18 19 20 21 22 23 23 24 24 25 26 26 27 27 26 26 27 27 28 28
15 16 15 15 14 14 14 13 12 12 13 13 15 14 13 15 15 15 15 14 15 15 16 17 18 20 21 22 23 24 24 25 26 27 27 27 27 27 27 27 27 28 29 29
15 16 15 16 15 15 15 15 14 13 13 13 15 15 15 15 15 16 15 15 15 16 16 18 19 21 22 23 24 24 25 26 27 28 28 28 28 28 28 28 29 30 30 31
15 15 15 15 15 16 15 15 15 13 13 13 14 16 16 16 15 16 16 16 16 16 17 18 20 22 23 24 25 25 26 27 27 28 28 29 29 29 29 29 30 30 30 30
14 14 15 15 15 15 15 15 15 14 14 12 13 15 16 16 15 15 15 15 16 17 18 19 20 22 23 23 24 25 25 26 26 27 27 27 27 27 28 28 28 29 29 29
13 14 14 14 14 14 14 15 14 14 14 14 13 15 16 15 15 15 15 16 17 18 19 20 21 22 22 23 23 23 23 24 25 25 25 25 25 25 26 26 27 28 27 27
12 12 12 12 12 13 14 14 14 14 14 14 14 15 16 16 16 15 16 17 18 19 20 20 20 21 22 22 22 22 22 23 24 25 25 24 24 24 24 25 25 25 25 24
10 10 10 11 11 13 13 13 13 13 12 14 15 15 16 15 15 16 17 17 18 18 19 20 20 21 21 22 22 22 23 23 23 23 23 23 22 22 22 23 23 23 22 22
10 10 11 11 11 11 11 12 12 11 11 12 13 14 15 14 15 15 16 17 17 18 19 20 21 21 21 21 21 22 22 22 21 21 21 21 21 20 20 20 19 19 18 18
9 9 9 9 9 9 10 10 10 10 10 11 12 14 14 14 15 15 16 16 17 18 19 20 20 20 20 20 20 20 20 20 20 20 19 18 18 18 17 17 16 16 16 16
8 8 8 8 8 8 9 9 9 10 10 11 13 13 14 14 15 15 16 17 18 18 19 19 19 20 20 20 20 19 18 18 17 16 15 15 15 15 15 15 14 14 14 14
7 7 7 7 7 8 9 9 9 10 11 12 13 13 14 14 15 16 16 17 18 18 18 18 18 18 18 17 16 16 16 16 15 14 14 14 14 14 14 13 12 12 12 12
6 6 7 7 8 9 9 9 10 11 12 12 12 13 13 14 14 15 15 16 16 16 17 17 17 16 15 15 15 15 14 13 13 13 13 13 13 13 12 12 10 9 10 11
6 6 6 7 8 9 9 9 9 10 10 10 11 12 12 13 14 14 14 14 15 15 15 14 14 14 13 12 13 12 11 12 12 11 11 11 11 11 11 10 8 8 8 9
5 6 6 7 8 9 9 9 9 9 10 10 11 11 13 13 13 13 13 13 13 13 13 13 12 11 10 10 10 10 9 10 10 9 9 9 10 10 9 7 6 6 7 7
5 6 6 7 8 9 9 9 9 9 9 10 11 12 12 12 11 12 12 11 11 11 11 10 9 8 8 8 8 8 8 8 7 7 7 7 8 7 6 6 6 6 7 7
6 6 6 7 8 8 9 9 9 9 9 9 10 10 11 11 11 11 11 10 10 9 8 8 7 6 6 7 7 6 6 5 6 5 6 6 6 6 5 5 6 6 6 6
5 5 6 6 7 7 8 8 8 8 8 8 9 9 9 9 10 9 9 8 8 7 6 5 5 4 5 6 6 5 5 5 4 4 5 5 6 7 7 6 6 6 6 6
4 4 5 5 6 7 7 6 6 6 7 8 8 8 8 9 9 8 6 6 5 4 4 4 4 4 5 6 6 5 5 4 3 4 5 6 6 7 7 7 7 7 7 7
4 4 4 4 5 5 5 5 6 6 6 7 7 7 7 8 7 6 5 4 3 3 3 3 3 4 5 5 4 4 3 3 3 4 5 5 6 7 8 8 9 9 8 8

GEFSCGP_500_meanwind_162.txt.gz
Wind_Speed
14 15 14 15 15 14 14 13 13 14 15 16 16 16 18 18 18 16 17 17 18 18 18 19 20 20 20 21 22 21 22 22 22 22 22 23 23 23 23 23 24 24 25 26
12 12 14 16 15 17 15 15 15 16 16 16 15 16 17 18 17 16 17 17 18 18 18 19 20 20 21 22 22 21 21 21 21 22 22 23 23 23 23 24 25 25 26 26
11 11 13 14 15 16 17 18 16 15 15 16 15 15 15 17 16 15 16 17 19 20 19 19 20 21 21 21 21 21 22 22 22 22 23 24 24 25 25 25 26 26 26 27
11 13 15 15 15 15 15 16 17 15 15 15 14 17 17 18 18 17 17 17 18 20 20 19 19 20 19 19 19 21 22 23 23 24 24 25 25 24 25 26 26 27 27 27
11 13 14 14 14 13 14 15 14 14 16 17 16 17 18 17 18 17 17 17 18 19 20 19 20 20 19 20 20 21 23 23 23 24 24 24 25 25 26 27 27 28 28 28
13 13 13 13 14 14 15 14 13 14 16 18 16 18 18 18 18 19 19 18 18 20 20 20 20 20 19 20 21 22 23 23 23 24 25 25 26 27 28 28 28 28 28 28
10 12 14 14 14 14 13 12 14 16 17 18 16 18 19 16 17 19 20 21 21 20 19 20 20 20 19 20 21 22 22 24 24 25 26 26 27 27 28 28 28 29 29 29
14 14 14 14 14 14 13 14 15 16 16 15 14 16 17 18 19 19 20 21 21 20 20 20 21 20 19 19 21 22 23 23 24 25 25 26 26 26 27 28 28 28 28 28
14 13 12 14 14 14 14 15 14 15 14 14 14 16 18 19 21 21 22 21 21 20 20 21 21 21 21 20 21 22 23 24 24 25 25 26 26 27 27 27 28 28 28 28
10 11 12 12 15 15 15 14 14 15 14 15 17 16 18 20 21 22 23 21 21 21 21 21 21 21 21 22 22 23 23 24 24 24 25 26 26 26 27 27 28 28 27 27
12 12 13 13 13 13 15 14 15 16 15 15 18 18 20 20 20 21 22 22 21 21 21 21 21 22 22 22 23 25 25 25 24 25 25 25 26 26 27 27 27 26 26 27
12 13 13 14 12 12 15 14 16 17 17 16 18 20 20 21 20 21 21 20 20 22 22 22 22 22 21 22 23 24 24 25 25 25 25 25 25 25 25 25 25 25 24 24
13 14 13 12 13 13 14 14 14 16 17 17 19 21 22 21 20 20 21 21 21 22 23 22 22 22 22 23 24 24 23 24 25 24 24 25 24 24 24 23 23 23 21 21
14 14 12 11 11 12 13 13 14 15 17 18 19 21 22 21 21 21 19 20 21 22 22 21 21 22 22 23 23 23 24 24 23 23 23 23 22 22 21 21 21 20 19 19
14 13 12 12 11 11 12 12 14 15 16 17 19 20 19 19 19 19 17 19 19 20 20 21 21 21 22 22 22 22 23 22 21 21 20 20 20 20 19 18 17 17 17 17
13 12 11 11 12 12 12 13 15 15 16 17 19 20 19 19 19 18 18 19 19 19 20 21 22 21 21 21 21 21 20 20 19 19 18 18 18 17 17 16 16 16 16 15
12 11 10 10 10 12 13 13 14 16 16 17 19 19 19 18 18 18 17 18 19 19 20 20 21 20 19 19 19 19 19 18 18 18 17 17 16 15 15 14 14 14 15 14
11 11 10 10 9 11 12 12 13 15 17 17 19 19 17 18 18 18 18 18 18 17 18 19 19 18 17 17 17 18 18 17 17 16 15 15 14 14 14 13 13 13 14 12
11 10 9 9 10 11 11 11 12 14 16 16 17 15 15 17 17 17 18 17 16 17 17 17 17 16 17 17 16 16 16 16 16 14 13 13 12 12 12 11 11 11 11 11
10 10 9 9 10 11 11 12 13 14 15 14 15 14 15 16 17 17 17 17 16 17 16 16 16 15 15 15 15 14 14 14 13 12 12 11 11 11 10 10 10 9 9 10
9 9 9 9 11 12 10 12 13 13 14 13 13 13 14 15 16 16 16 15 15 15 15 14 14 14 14 13 13 12 11 11 11 11 10 10 9 9 9 8 8 8 8 8
9 9 10 11 12 11 11 13 13 13 13 13 13 14 14 14 15 15 14 14 13 13 13 12 12 11 11 11 10 8 9 9 9 9 8 7 7 8 8 7 7 8 8 8
8 8 9 10 11 11 11 11 11 11 11 12 12 12 13 13 14 13 12 13 12 12 10 9 9 9 9 9 7 6 7 8 7 6 6 6 6 7 8 7 7 7 8 8
9 9 10 10 10 10 10 10 10 9 10 10 10 11 12 12 11 11 11 11 10 9 8 8 7 7 7 7 7 7 7 6 6 5 5 5 6 7 7 7 7 7 8 7
8 9 10 9 9 9 9 9 9 9 9 9 10 10 10 10 10 9 9 9 8 8 7 6 6 6 6 6 7 6 5 5 5 5 5 5 5 6 7 7 7 7 7 8
8 9 9 8 8 9 8 8 8 8 8 8 8 9 9 9 8 8 7 7 7 7 6 5 5 6 6 6 6 5 5 4 4 4 4 4 5 6 6 7 8 8 8 8

GEFSCGP_500_meanwind_168.txt.gz
Wind_Speed
18 18 19 19 20 19 19 20 19 19 18 18 17 17 17 19 19 17 17 17 16 17 16 15 15 15 16 17 18 19 20 20 20 20 21 22 21 22 22 22 23 23 24 24
16 16 16 17 17 17 18 19 20 18 18 17 16 17 18 18 17 17 16 17 18 17 16 15 15 14 15 17 19 20 20 20 20 21 21 22 22 23 23 24 24 24 24 24
13 13 14 16 16 16 16 17 17 16 16 16 17 17 17 16 17 16 16 16 17 18 16 14 14 15 15 17 18 18 19 19 20 20 21 22 23 23 23 24 24 24 24 24
12 12 13 13 13 13 13 14 15 15 17 16 17 17 17 16 16 17 18 17 16 16 15 15 14 15 16 17 18 18 18 19 20 21 21 21 22 23 24 24 24 24 24 25
11 12 13 13 12 12 11 12 12 14 16 17 17 18 17 18 18 17 17 17 16 16 16 16 16 16 16 17 18 19 19 20 20 21 21 21 22 22 23 23 23 24 25 26
10 10 12 12 13 12 13 14 14 15 16 18 18 19 18 18 17 15 14 15 15 16 16 16 16 16 17 18 19 20 21 21 21 21 22 22 22 23 24 24 24 25 26 26
9 10 11 11 13 13 14 14 14 16 17 17 18 20 19 19 19 17 16 15 15 17 16 16 17 17 18 20 21 21 22 22 22 22 23 23 24 24 25 25 25 26 26 26
9 10 11 12 12 13 14 14 13 13 15 16 17 20 19 19 18 15 15 15 16 15 16 17 17 18 19 20 21 21 21 21 22 22 22 22 23 23 24 25 26 26 26 26
9 9 10 13 14 14 13 13 12 14 15 15 16 16 16 16 15 14 14 15 16 16 16 17 17 18 18 19 20 20 20 19 19 20 21 22 23 23 24 24 25 25 24 24
9 11 12 12 13 14 14 13 13 15 15 14 15 14 14 13 15 14 14 15 16 16 16 17 17 18 18 19 20 20 19 20 21 21 21 22 23 23 24 24 25 24 24 23
9 10 12 12 13 13 14 13 13 15 15 15 15 15 15 15 14 14 15 15 15 15 16 18 19 18 18 19 19 20 21 21 22 22 22 22 23 23 23 23 22 22 22 22
10 9 9 11 12 13 13 14 14 15 15 16 17 17 16 16 15 16 17 16 17 17 18 18 19 19 19 20 20 21 21 21 22 22 21 21 22 22 22 21 20 20 21 21
11 10 10 10 12 14 15 14 15 16 16 17 18 17 16 17 16 17 18 17 18 18 19 20 20 20 20 19 20 20 21 21 22 21 21 21 20 20 20 19 19 19 19 19
12 12 11 11 11 13 15 15 15 16 17 17 17 16 15 16 17 18 18 18 18 19 18 19 19 19 20 20 20 21 20 20 21 20 19 19 19 18 18 17 17 17 17 17
12 12 12 12 12 13 14 14 15 15 16 17 16 16 15 16 16 16 17 17 17 18 17 17 17 18 19 19 19 19 18 19 19 18 17 17 17 17 17 16 15 15 15 16
12 12 12 12 12 12 13 13 14 15 16 16 16 15 15 16 16 16 15 16 17 17 17 17 16 16 17 17 18 18 18 18 16 15 16 16 16 15 15 15 15 14 14 14
14 13 12 11 11 11 12 11 13 14 15 15 14 14 15 16 16 16 15 16 16 17 17 17 16 16 15 15 15 16 17 15 14 13 14 15 15 14 14 14 13 13 12 12
14 13 12 11 11 12 11 10 12 13 14 14 14 14 14 15 15 15 16 16 17 17 17 16 14 13 13 13 14 14 14 12 12 11 12 13 13 12 11 11 11 10 10 10
13 12 12 12 12 12 12 12 12 13 14 13 13 13 13 14 14 15 15 15 15 15 15 13 12 12 12 12 12 12 11 11 10 10 11 11 10 10 9 10 10 10 9 8
12 11 11 11 11 12 12 12 13 13 13 12 12 12 13 14 14 14 14 14 12 13 12 11 10 10 10 10 10 10 10 10 10 9 10 10 9 9 9 9 9 9 8 8
11 10 11 11 11 11 11 12 12 13 12 13 13 13 14 14 14 14 13 12 12 12 12 11 10 9 9 8 9 9 9 9 9 9 8 8 9 8 8 8 8 8 8 7
9 9 10 10 10 10 10 10 11 12 12 12 12 11 12 12 12 12 11 10 11 10 10 9 8 8 8 7 7 6 6 7 7 7 7 7 7 7 7 7 7 7 7 7
9 9 9 9 8 8 8 9 9 10 11 11 10 10 11 11 10 9 9 9 8 8 7 6 6 6 6 6 5 5 5 5 5 5 6 6 5 6 6 6 5 7 7 7
8 8 7 7 7 8 7 8 9 10 10 10 10 10 10 9 8 7 7 7 7 6 5 5 5 5 5 4 3 4 4 4 4 4 5 5 5 5 5 5 6 6 7 7
6 6 6 6 6 6 6 8 8 9 9 10 9 8 8 7 6 6 7 6 6 5 4 4 4 4 3 3 3 3 3 3 3 4 4 5 5 5 5 5 6 6 7 7
6 6 5 5 5 5 6 7 8 8 8 8 7 7 7 6 5 5 5 5 5 4 3 4 4 3 3 3 2 2 3 3 3 3 4 4 5 5 5 5 6 6 7 7

GEFSCGP_500_meanwind_174.txt.gz
Wind_Speed
13 14 15 16 18 19 19 20 21 22 22 22 22 22 22 23 21 20 19 18 18 18 18 17 17 17 17 17 17 18 19 19 19 20 20 20 21 22 23 23 23 24 24 24
13 14 14 17 18 19 20 20 20 21 21 22 22 21 21 21 21 20 20 19 18 18 18 17 17 17 17 17 17 18 18 19 19 20 21 21 22 22 23 24 24 25 24 25
12 14 15 17 18 19 19 19 19 20 20 19 19 19 19 19 20 20 20 19 18 18 17 16 16 16 17 17 18 18 18 19 19 19 20 21 22 23 24 25 25 25 25 26
12 13 14 16 17 18 19 18 18 18 19 18 18 18 18 18 19 19 19 18 18 18 18 17 16 16 17 17 18 18 18 19 19 19 21 22 22 23 24 24 24 24 24 25
11 13 14 15 16 16 16 17 18 17 18 17 17 19 18 18 18 18 18 18 19 20 19 18 17 16 16 17 17 18 19 20 20 21 21 22 23 23 23 24 24 23 23 24
12 13 14 14 15 16 16 17 17 16 17 18 18 19 18 18 18 18 18 18 19 19 19 17 18 17 16 17 18 19 20 21 22 22 22 22 22 22 22 22 23 23 23 23
12 13 13 14 14 15 15 16 17 17 17 18 18 19 19 18 18 18 18 18 18 18 17 17 17 18 18 18 19 20 21 22 22 22 22 22 23 23 23 23 24 25 25 25
11 12 12 12 12 12 12 14 15 17 16 16 16 18 18 18 18 18 18 18 18 18 18 18 19 19 20 19 19 20 20 21 21 21 22 23 23 23 24 25 26 26 25 25
10 11 11 11 11 12 12 13 14 16 16 16 16 17 16 16 17 16 17 18 18 19 19 19 19 20 20 19 19 19 20 20 20 20 21 23 23 24 24 25 25 24 24 24
10 10 11 11 11 11 12 14 15 16 17 17 16 15 15 14 16 16 17 17 18 18 19 19 19 19 19 20 19 20 20 20 20 20 21 23 23 24 24 24 24 24 24 24
10 10 10 11 11 10 11 13 14 15 17 18 18 16 16 16 17 18 18 18 18 18 19 19 18 19 19 20 20 20 20 20 21 21 21 21 21 22 23 23 23 23 22 23
10 11 11 11 11 11 11 12 13 14 16 18 18 17 17 18 17 18 18 18 18 18 18 18 18 18 19 20 21 20 20 20 20 20 21 20 20 20 21 22 21 21 22 22
13 13 12 12 12 12 13 13 14 15 17 18 19 18 18 18 18 18 18 18 18 18 18 18 19 19 19 19 19 19 19 19 19 19 20 19 19 20 21 21 20 21 21 21
13 13 13 13 13 13 14 14 15 16 17 18 18 18 17 17 17 18 17 17 17 17 18 18 18 18 18 18 18 18 18 18 18 18 18 19 19 19 19 19 19 18 19 19
13 14 14 14 15 15 14 15 16 16 17 19 19 18 17 17 17 16 16 15 15 16 16 16 16 16 16 16 17 17 17 16 16 17 17 18 18 18 17 17 17 17 17 16
14 15 14 14 15 15 14 14 15 16 16 17 17 17 16 17 16 15 15 15 15 15 15 15 15 16 16 15 16 15 15 15 15 15 16 16 16 16 16 16 16 16 15 14
15 15 14 14 15 15 15 14 14 15 15 15 16 15 15 16 15 15 14 15 16 15 15 15 15 16 16 16 15 14 14 14 14 14 14 14 14 15 15 15 15 14 14 14
15 15 15 15 15 16 14 14 15 15 14 15 15 15 15 15 15 14 14 14 14 14 14 14 15 15 14 14 13 13 12 12 11 11 12 12 12 13 13 13 13 13 13 13
14 14 15 16 16 15 14 15 15 15 14 14 15 15 15 14 14 13 13 13 13 12 12 12 13 12 11 11 11 11 10 10 10 10 10 11 11 11 11 11 11 11 11 12
14 14 15 16 16 16 14 14 14 14 14 14 14 14 13 12 12 12 12 12 11 10 10 10 10 10 10 10 9 8 8 8 8 9 9 8 9 9 10 10 11 11 12 12
13 14 15 15 15 14 13 12 13 14 13 13 13 13 12 12 11 11 11 11 10 9 9 9 8 8 9 9 8 7 7 7 8 7 7 7 7 8 9 10 10 10 11 11
13 13 14 14 14 13 11 11 12 12 12 12 12 12 12 11 11 11 10 10 9 8 8 7 7 7 7 7 6 6 6 6 6 6 6 6 7 8 9 9 9 10 10 10
12 12 12 13 12 12 11 11 11 11 11 11 11 11 11 10 10 10 9 9 8 7 7 6 6 6 6 6 6 4 3 4 5 6 6 6 7 7 8 9 9 9 9 9
12 12 12 12 11 10 10 10 10 10 9 9 9 9 9 8 8 8 8 8 7 6 5 5 5 5 5 5 4 3 3 3 5 4 5 5 6 7 8 8 8 8 8 9
11 11 11 10 10 10 9 9 8 8 7 7 7 7 7 7 7 7 6 5 5 5 4 4 4 3 3 3 3 2 2 3 3 3 4 5 6 7 7 8 8 8 9 9
10 10 9 9 9 9 8 7 6 6 6 6 6 6 6 6 5 4 4 3 3 3 3 2 2 1 2 3 2 2 2 2 3 3 4 5 7 7 7 7 8 8 8 8

GEFSCGP_500_meanwind_180.txt.gz
Wind_Speed
8 9 10 12 13 14 14 15 17 19 20 19 19 19 19 19 19 19 19 18 18 19 20 20 20 20 20 20 21 20 20 19 19 19 19 19 20 22 22 22 22 23 23 23
8 10 11 12 12 12 13 14 15 18 19 18 19 19 18 19 19 20 20 20 20 20 20 20 20 20 20 20 20 20 19 19 19 20 20 21 21 22 23 22 22 22 22 22
9 11 11 11 12 12 13 13 15 17 17 18 18 18 19 19 19 19 19 20 20 21 20 20 20 21 20 20 21 21 19 19 20 20 20 21 21 21 22 22 22 23 23 23
10 11 11 11 12 13 13 14 15 16 16 16 17 16 18 19 18 18 18 18 19 19 19 20 20 20 21 21 21 20 20 19 19 20 21 21 21 21 22 23 22 23 23 23
11 11 11 12 13 14 14 14 14 16 16 15 16 16 15 17 17 18 18 17 18 19 19 19 20 21 21 22 21 20 20 20 20 21 21 22 21 22 22 23 22 23 23 24
10 11 11 12 12 13 13 13 13 14 14 15 15 16 15 16 17 17 18 18 18 19 19 20 21 21 21 20 20 20 21 21 21 21 21 22 23 23 23 23 24 24 24 25
9 10 11 12 12 12 13 12 12 12 13 15 16 17 16 17 17 17 17 17 18 19 19 20 20 20 20 20 20 21 21 21 21 21 22 23 23 24 24 24 24 24 25 26
10 10 11 11 12 12 12 12 12 13 13 13 14 16 15 16 17 17 17 18 18 18 18 19 19 19 19 20 20 20 21 21 21 21 22 22 23 23 23 23 24 23 24 24
10 10 11 12 12 12 13 13 13 14 13 13 14 14 16 16 17 17 17 17 16 17 17 17 17 18 19 20 20 20 20 21 21 21 21 21 22 22 22 22 22 22 22 23
11 11 11 11 12 12 12 12 12 11 12 12 13 14 15 16 16 15 16 16 17 18 17 16 16 18 19 20 20 20 20 21 20 20 21 20 20 20 21 22 21 21 21 22
11 12 11 11 11 11 12 12 12 12 12 11 12 13 15 16 17 16 17 17 17 16 15 15 16 17 18 19 20 20 20 19 20 20 20 19 18 18 19 20 20 20 20 20
12 12 11 11 11 11 11 11 12 12 12 13 13 15 15 16 16 16 16 17 17 15 16 16 17 18 18 18 18 18 18 18 18 18 18 17 17 17 18 19 19 19 19 19
13 12 10 10 11 12 12 12 12 12 12 13 14 16 16 17 17 16 15 15 15 15 16 16 16 17 17 17 17 17 17 17 17 16 16 16 17 17 17 18 18 18 18 19
14 13 12 12 13 13 13 13 13 13 12 14 15 15 16 16 16 17 16 16 16 15 15 15 16 16 16 16 16 16 16 15 15 15 15 16 16 17 17 17 17 17 18 18
14 13 13 13 13 14 15 15 15 14 13 14 14 15 16 16 16 16 16 15 15 15 14 14 15 15 16 16 15 16 15 14 14 14 15 15 16 16 17 17 16 16 17 17
14 13 13 12 13 13 14 14 14 14 14 14 15 15 15 16 16 16 15 14 13 13 14 15 15 16 16 15 15 14 14 13 14 14 15 14 14 15 15 16 15 15 14 14
15 14 13 12 13 13 14 14 14 15 15 15 15 15 15 15 14 14 14 14 13 13 13 14 14 14 14 14 13 13 13 13 13 13 13 13 14 14 13 13 14 13 12 12
15 14 14 13 13 14 14 14 13 13 14 14 14 13 13 13 12 12 13 13 12 12 12 12 12 12 12 12 13 13 12 12 12 12 12 12 12 12 11 11 11 11 11 12
15 14 14 13 13 14 14 13 13 13 12 12 13 12 12 12 12 11 11 11 11 11 10 10 10 10 10 10 11 10 10 10 10 10 10 10 11 11 11 10 10 10 11 12
14 14 14 13 13 13 13 12 12 11 11 11 12 12 11 10 10 10 10 10 10 9 9 9 9 9 9 9 9 9 8 8 8 8 8 8 9 10 10 10 10 10 10 11
14 14 14 13 14 13 12 11 11 11 11 11 11 11 10 10 10 10 9 9 9 9 8 8 8 8 8 8 7 7 7 7 7 7 7 7 8 8 8 9 9 10 10 11
14 14 13 13 14 14 12 11 10 10 10 11 11 10 10 9 9 9 8 8 8 8 8 8 8 8 7 7 6 6 6 6 6 6 7 7 7 7 8 8 8 9 10 11
14 13 13 13 13 13 11 11 10 10 10 10 9 9 9 9 9 8 8 7 7 6 6 6 6 6 7 6 6 5 5 5 4 5 5 5 6 6 6 7 8 9 10 11
13 13 13 13 12 12 11 11 11 10 9 9 8 8 8 8 8 7 6 6 6 5 5 5 5 5 5 4 4 3 3 3 3 3 3 4 4 4 6 7 8 9 10 10
13 12 12 12 12 11 10 10 9 9 8 7 7 7 7 7 6 6 6 5 5 5 5 4 4 3 4 4 3 3 3 3 3 3 3 3 4 5 6 7 8 9 9 10
13 13 12 12 11 10 9 8 8 7 7 6 6 7 6 5 5 5 5 4 4 4 3 3 3 3 3 3 3 4 3 2 2 1 2 3 3 4 6 7 8 9 10 10

GEFSCGP_500_meanwind_186.txt.gz
Wind_Speed
6 7 7 9 10 9 12 11 12 13 13 14 16 18 19 20 21 20 20 20 22 22 21 21 21 22 22 21 22 23 23 23 24 25 26 26 26 25 24 24 24 25 25 25
5 7 8 9 11 11 11 12 13 14 14 15 16 18 19 18 20 21 21 21 21 23 23 23 22 23 22 22 22 23 24 24 25 26 26 26 26 25 25 25 25 25 25 25
7 9 10 10 10 11 12 12 14 15 16 16 16 18 19 18 21 22 21 20 20 21 21 22 21 22 22 23 23 24 24 25 26 26 27 27 26 25 26 25 26 26 26 25
8 9 10 11 11 12 13 13 15 16 16 17 17 19 19 19 21 21 21 21 20 20 21 23 23 22 23 23 23 24 24 25 26 27 27 27 26 25 25 25 26 27 26 25
8 11 11 12 13 13 12 14 16 16 18 18 18 19 19 19 22 22 20 21 20 21 21 22 23 22 22 23 24 24 24 25 27 27 26 25 24 24 25 24 25 26 25 25
10 12 12 13 14 14 13 14 15 16 16 17 15 18 21 20 20 20 20 19 20 20 21 22 23 23 23 23 24 23 24 24 24 24 23 23 23 23 23 23 23 23 23 24
10 11 11 13 13 14 13 12 13 14 15 16 14 16 19 19 20 20 19 20 21 21 20 21 22 22 22 23 23 23 23 23 22 22 22 22 22 22 23 22 21 23 23 24
10 11 12 14 13 14 14 12 13 14 16 15 15 16 17 18 19 20 19 20 20 21 21 21 21 21 22 22 22 21 21 21 22 21 20 20 21 22 22 22 22 23 24 25
11 12 12 12 13 13 12 12 14 16 16 17 16 16 18 17 18 18 19 20 21 21 21 21 20 21 21 20 20 20 20 20 21 20 21 21 21 22 23 22 22 23 24 24
14 14 12 12 12 13 13 14 14 15 16 17 17 17 18 17 18 19 19 19 19 20 21 20 18 17 17 18 19 19 19 19 20 20 20 21 22 23 22 22 22 22 23 23
14 15 13 14 14 13 13 15 16 15 17 18 19 19 18 18 18 20 20 20 21 20 19 19 19 18 18 18 19 19 19 19 19 19 20 21 21 22 22 22 21 21 22 22
14 15 15 15 15 15 13 14 15 16 16 17 19 20 19 19 19 20 20 20 21 21 19 18 18 19 19 19 19 19 19 19 19 19 19 19 20 21 20 20 20 21 21 21
15 15 14 13 14 14 13 13 14 15 17 18 18 20 19 19 20 20 19 19 20 19 17 17 18 19 18 19 19 19 18 17 17 17 17 18 18 19 18 18 19 19 19 20
18 16 14 14 15 14 13 14 14 15 17 18 19 20 19 19 18 17 18 19 20 20 19 17 18 18 19 19 18 17 17 17 16 16 16 17 17 17 16 17 17 17 18 19
19 17 15 14 16 17 14 14 15 17 17 18 19 20 19 18 18 18 18 18 19 20 19 19 18 18 18 17 16 16 16 16 16 16 16 16 16 16 15 15 15 15 17 18
18 18 16 15 14 15 15 15 15 16 17 17 18 20 19 19 19 20 19 19 19 18 18 18 17 17 17 16 16 15 15 15 15 15 15 15 15 15 15 14 14 15 16 16
18 18 17 14 13 14 15 14 16 16 16 17 18 19 18 19 17 18 18 17 17 17 16 16 17 16 16 16 15 15 15 15 15 14 14 13 13 13 13 14 14 14 15 15
17 17 16 13 14 15 14 14 14 15 15 17 18 18 17 16 16 16 16 16 16 16 16 16 16 16 16 15 14 14 14 14 14 13 13 12 12 12 13 13 13 14 15 15
16 16 15 14 15 15 15 16 15 15 15 16 17 17 16 15 16 16 14 14 14 14 15 14 14 15 15 14 14 13 13 13 13 12 11 11 11 11 12 12 13 14 14 15
15 14 15 15 16 15 13 15 16 15 15 16 16 15 15 14 15 15 14 14 13 13 12 12 12 12 13 12 12 11 11 11 10 10 10 9 10 10 11 11 12 12 13 14
15 15 15 16 16 15 14 14 14 15 16 15 15 14 14 14 14 13 14 14 13 12 12 11 11 11 11 10 11 10 9 9 8 8 9 9 9 9 9 10 11 12 13 14
15 15 15 16 16 14 14 14 14 15 15 13 13 13 13 13 13 12 13 13 12 12 11 10 11 11 10 10 10 9 8 7 8 8 8 8 7 8 8 9 11 12 13 14
16 17 17 17 16 15 13 14 14 14 14 12 12 12 12 12 12 11 11 12 11 11 10 10 10 10 9 8 8 7 7 6 6 7 6 6 6 7 7 9 10 12 13 13
17 18 17 16 15 15 14 14 15 14 14 12 11 11 11 11 10 9 10 9 9 9 8 8 8 7 7 6 6 6 6 5 5 5 6 6 6 7 8 9 11 12 12 13
16 17 17 17 16 14 13 14 14 13 12 11 10 10 10 10 9 9 8 7 7 6 6 6 6 6 5 5 5 5 5 5 4 5 6 6 6 7 9 10 11 12 13 13
17 17 18 17 16 13 13 13 12 11 10 10 10 9 9 9 9 8 7 6 6 5 5 5 5 4 3 4 4 4 4 4 4 5 5 6 7 8 9 10 12 12 12 13